| time (UTC) | temp F | wind direction | speed knots | gust knots | rain 1hr in | rain 24hr in | rain mn in | humidity % | barometer mb |
| 20260504151117 | 74 | 215 | 0.9 | 3.5 | 0.00 | 0.00 | 0.00 | 41 | 1009.2 |
| 20260504151113 | 74 | 80 | 0.9 | 3.5 | 0.00 | 0.00 | 0.00 | 40 | 1009.2 |
| 20260504150758 | 74 | 80 | 0.9 | 3.5 | 0.00 | 0.00 | 0.00 | 41 | 1009.2 |
| 20260504150655 | 74 | 81 | 0.9 | 3.5 | 0.00 | 0.00 | 0.00 | 40 | 1009.2 |
| 20260504150555 | 74 | 81 | 0.9 | 3.5 | 0.00 | 0.00 | 0.00 | 41 | 1009.2 |
| 20260504150456 | 74 | 81 | 0.9 | 3.5 | 0.00 | 0.00 | 0.00 | 42 | 1009.2 |
| 20260504150400 | 74 | 81 | 0.9 | 3.5 | 0.00 | 0.00 | 0.00 | 40 | 1009.2 |
| 20260504150355 | 74 | 81 | 0.9 | 3.5 | 0.00 | 0.00 | 0.00 | 40 | 1009.2 |
| 20260504150256 | 74 | 81 | 0.9 | 3.5 | 0.00 | 0.00 | 0.00 | 41 | 1009.2 |
| 20260504150154 | 74 | 80 | 0.9 | 3.5 | 0.00 | 0.00 | 0.00 | 41 | 1009.2 |
| 20260504141328 | 75 | 86 | 1.7 | 6.1 | 0.00 | 0.00 | 0.00 | 40 | 1009.5 |
| 20260504141229 | 75 | 53 | 1.7 | 6.1 | 0.00 | 0.00 | 0.00 | 40 | 1009.5 |
| 20260504141129 | 75 | 53 | 1.7 | 6.1 | 0.00 | 0.00 | 0.00 | 41 | 1009.5 |
| 20260504141029 | 75 | 53 | 1.7 | 6.1 | 0.00 | 0.00 | 0.00 | 42 | 1009.5 |
| 20260504140929 | 75 | 40 | 1.7 | 6.1 | 0.00 | 0.00 | 0.00 | 42 | 1009.5 |
| 20260504140900 | 74 | 41 | 1.7 | 6.1 | 0.00 | 0.00 | 0.00 | 42 | 1009.5 |
| 20260504140828 | 74 | 41 | 1.7 | 6.1 | 0.00 | 0.00 | 0.00 | 42 | 1009.6 |
| 20260504140726 | 74 | 14 | 1.7 | 6.1 | 0.00 | 0.00 | 0.00 | 40 | 1009.6 |
| 20260504140626 | 74 | 14 | 1.7 | 6.1 | 0.00 | 0.00 | 0.00 | 42 | 1009.6 |
| 20260504140526 | 74 | 10 | 1.7 | 6.1 | 0.00 | 0.00 | 0.00 | 42 | 1009.7 |
| 20260504140426 | 74 | 9 | 1.7 | 6.1 | 0.00 | 0.00 | 0.00 | 41 | 1009.6 |
| 20260504140400 | 74 | 9 | 1.7 | 6.1 | 0.00 | 0.00 | 0.00 | 42 | 1009.6 |
| 20260504140322 | 74 | 0 | 1.7 | 5.2 | 0.00 | 0.00 | 0.00 | 41 | 1009.7 |
| 20260504140221 | 74 | 9 | 1.7 | 5.2 | 0.00 | 0.00 | 0.00 | 41 | 1009.6 |
| 20260504140121 | 74 | 11 | 1.7 | 5.2 | 0.00 | 0.00 | 0.00 | 41 | 1009.7 |
| 20260504130800 | 71 | 0 | 1.7 | 4.3 | 0.00 | 0.00 | 0.00 | 47 | 1010.0 |
| 20260504130700 | 71 | 56 | 1.7 | 3.5 | 0.00 | 0.00 | 0.00 | 44 | 1010.0 |
| 20260504130600 | 71 | 113 | 1.7 | 3.5 | 0.00 | 0.00 | 0.00 | 43 | 1010.0 |
| 20260504130500 | 71 | 63 | 1.7 | 3.5 | 0.00 | 0.00 | 0.00 | 45 | 1010.1 |
| 20260504130400 | 71 | 11 | 1.7 | 3.5 | 0.00 | 0.00 | 0.00 | 46 | 1010.1 |
| 20260504130356 | 71 | 11 | 1.7 | 3.5 | 0.00 | 0.00 | 0.00 | 46 | 1010.1 |
| 20260504130300 | 71 | 11 | 1.7 | 3.5 | 0.00 | 0.00 | 0.00 | 46 | 1010.1 |
| 20260504130201 | 71 | 52 | 0.9 | 3.5 | 0.00 | 0.00 | 0.00 | 43 | 1010.1 |
| 20260504120239 | 72 | 94 | 1.7 | 7.0 | 0.00 | 0.00 | 0.00 | 42 | 1010.4 |
| 20260504120139 | 72 | 94 | 2.6 | 7.0 | 0.00 | 0.00 | 0.00 | 44 | 1010.4 |
| 20260504110630 | 70 | 58 | 3.5 | 10.4 | 0.00 | 0.00 | 0.00 | 46 | 1010.8 |
| 20260504110530 | 70 | 91 | 3.5 | 10.4 | 0.00 | 0.00 | 0.00 | 45 | 1010.8 |
| 20260504110429 | 70 | 121 | 3.5 | 10.4 | 0.00 | 0.00 | 0.00 | 47 | 1010.8 |
| 20260504110353 | 70 | 119 | 3.5 | 10.4 | 0.00 | 0.00 | 0.00 | 47 | 1010.8 |
| 20260504110329 | 70 | 83 | 3.5 | 10.4 | 0.00 | 0.00 | 0.00 | 47 | 1010.8 |
| 20260504110229 | 70 | 57 | 3.5 | 10.4 | 0.00 | 0.00 | 0.00 | 46 | 1010.8 |
| 20260504110129 | 70 | 84 | 3.5 | 10.4 | 0.00 | 0.00 | 0.00 | 46 | 1010.8 |
| 20260504100608 | 69 | 117 | 2.6 | 7.8 | 0.00 | 0.00 | 0.00 | 47 | 1011.5 |
| 20260504100602 | 69 | 95 | 2.6 | 7.8 | 0.00 | 0.00 | 0.00 | 48 | 1011.5 |
| 20260504100558 | 69 | 171 | 2.6 | 7.8 | 0.00 | 0.00 | 0.00 | 47 | 1011.5 |
| 20260504100317 | 69 | 106 | 2.6 | 7.8 | 0.00 | 0.00 | 0.00 | 47 | 1011.5 |
| 20260504100217 | 69 | 108 | 2.6 | 7.8 | 0.00 | 0.00 | 0.00 | 49 | 1011.6 |
| 20260504100117 | 69 | 118 | 2.6 | 7.8 | 0.00 | 0.00 | 0.00 | 47 | 1011.5 |
| 20260504082002 | 63 | 91 | 0.9 | 3.5 | 0.00 | 0.00 | 0.00 | 54 | 1012.6 |
| 20260504081901 | 63 | 91 | 0.9 | 3.5 | 0.00 | 0.00 | 0.00 | 54 | 1012.6 |
| 20260504081801 | 63 | 91 | 0.9 | 3.5 | 0.00 | 0.00 | 0.00 | 57 | 1012.6 |
| 20260504081701 | 63 | 95 | 1.7 | 3.5 | 0.00 | 0.00 | 0.00 | 56 | 1012.6 |
| 20260504081600 | 63 | 95 | 1.7 | 3.5 | 0.00 | 0.00 | 0.00 | 55 | 1012.6 |
| 20260504081500 | 63 | 89 | 1.7 | 3.5 | 0.00 | 0.00 | 0.00 | 56 | 1012.6 |
| 20260504081400 | 63 | 81 | 0.9 | 3.5 | 0.00 | 0.00 | 0.00 | 54 | 1012.6 |
| 20260504081329 | 63 | 115 | 0.9 | 3.5 | 0.00 | 0.00 | 0.00 | 54 | 1012.6 |
| 20260504081300 | 63 | 117 | 0.9 | 3.5 | 0.00 | 0.00 | 0.00 | 56 | 1012.6 |
| 20260504081200 | 63 | 73 | 0.9 | 3.5 | 0.00 | 0.00 | 0.00 | 57 | 1012.6 |
| 20260504081057 | 63 | 76 | 0.9 | 3.5 | 0.00 | 0.00 | 0.00 | 57 | 1012.6 |
| 20260504080957 | 63 | 89 | 0.9 | 3.5 | 0.00 | 0.00 | 0.00 | 55 | 1012.7 |
| 20260504080857 | 62 | 78 | 0.9 | 3.5 | 0.00 | 0.00 | 0.00 | 56 | 1012.6 |
| 20260504080829 | 62 | 65 | 0.9 | 3.5 | 0.00 | 0.00 | 0.00 | 56 | 1012.7 |
| 20260504080757 | 62 | 133 | 0.9 | 3.5 | 0.00 | 0.00 | 0.00 | 57 | 1012.7 |
| 20260504080656 | 62 | 132 | 0.9 | 3.5 | 0.00 | 0.00 | 0.00 | 57 | 1012.7 |
| 20260504080551 | 62 | 129 | 0.9 | 3.5 | 0.00 | 0.00 | 0.00 | 56 | 1012.7 |
| 20260504080451 | 62 | 129 | 0.9 | 3.5 | 0.00 | 0.00 | 0.00 | 58 | 1012.7 |
| 20260504080333 | 62 | 129 | 0.9 | 3.5 | 0.00 | 0.00 | 0.00 | 58 | 1012.7 |
| 20260504080251 | 62 | 129 | 0.9 | 3.5 | 0.00 | 0.00 | 0.00 | 59 | 1012.7 |
| 20260504080151 | 62 | 129 | 0.9 | 3.5 | 0.00 | 0.00 | 0.00 | 58 | 1012.7 |
| 20260504070329 | 61 | 243 | 0.0 | 4.3 | 0.00 | 0.00 | 0.00 | 62 | 1012.9 |
| 20260504070321 | 60 | 243 | 0.0 | 4.3 | 0.00 | 0.00 | 0.00 | 62 | 1012.9 |
| 20260504070220 | 61 | 108 | 0.0 | 1.7 | 0.00 | 0.00 | 0.00 | 61 | 1012.8 |
| 20260504070121 | 60 | 108 | 0.0 | 1.7 | 0.00 | 0.00 | 0.00 | 61 | 1012.8 |
| 20260504060248 | 55 | 92 | 0.9 | 1.7 | 0.00 | 0.00 | 0.00 | 73 | 1012.8 |
| 20260504060143 | 55 | 92 | 0.9 | 2.6 | 0.00 | 0.00 | 0.00 | 72 | 1012.8 |
| 20260504050729 | 52 | 113 | 0.9 | 5.2 | 0.00 | 0.00 | 0.00 | 75 | 1012.7 |
| 20260504050629 | 52 | 113 | 0.9 | 5.2 | 0.00 | 0.00 | 0.00 | 75 | 1012.7 |
| 20260504050528 | 52 | 129 | 0.9 | 5.2 | 0.00 | 0.00 | 0.00 | 75 | 1012.7 |
| 20260504050428 | 52 | 113 | 0.9 | 2.6 | 0.00 | 0.00 | 0.00 | 76 | 1012.7 |
| 20260504050329 | 52 | 111 | 0.9 | 2.6 | 0.00 | 0.00 | 0.00 | 76 | 1012.7 |
| 20260504050301 | 52 | 92 | 0.9 | 2.6 | 0.00 | 0.00 | 0.00 | 76 | 1012.7 |
| 20260504050229 | 52 | 90 | 0.9 | 2.6 | 0.00 | 0.00 | 0.00 | 76 | 1012.7 |
| 20260504050129 | 52 | 90 | 0.9 | 2.6 | 0.00 | 0.00 | 0.00 | 76 | 1012.7 |
| 20260504045929 | 51 | 90 | 0.9 | 2.6 | 0.00 | 0.00 | 0.00 | 76 | 1012.7 |
| 20260504045829 | 51 | 103 | 0.9 | 2.6 | 0.00 | 0.00 | 0.00 | 76 | 1012.7 |
| 20260504045801 | 51 | 79 | 0.9 | 2.6 | 0.00 | 0.00 | 0.00 | 76 | 1012.7 |
| 20260504045728 | 51 | 79 | 0.9 | 2.6 | 0.00 | 0.00 | 0.00 | 77 | 1012.7 |
| 20260504045628 | 51 | 109 | 0.9 | 1.7 | 0.00 | 0.00 | 0.00 | 76 | 1012.7 |
| 20260504045533 | 51 | 109 | 0.9 | 2.6 | 0.00 | 0.00 | 0.00 | 76 | 1012.7 |
| 20260504045429 | 51 | 109 | 0.9 | 2.6 | 0.00 | 0.00 | 0.00 | 77 | 1012.8 |
| 20260504045329 | 51 | 112 | 0.9 | 2.6 | 0.00 | 0.00 | 0.00 | 76 | 1012.8 |
| 20260504045300 | 51 | 113 | 0.9 | 2.6 | 0.00 | 0.00 | 0.00 | 76 | 1012.8 |
| 20260504045229 | 51 | 113 | 0.9 | 2.6 | 0.00 | 0.00 | 0.00 | 76 | 1012.8 |
| 20260504045133 | 51 | 113 | 0.9 | 2.6 | 0.00 | 0.00 | 0.00 | 76 | 1012.8 |
| 20260504045029 | 51 | 113 | 0.9 | 2.6 | 0.00 | 0.00 | 0.00 | 76 | 1012.8 |
| 20260504044929 | 51 | 113 | 0.9 | 2.6 | 0.00 | 0.00 | 0.00 | 76 | 1012.8 |
| 20260504044801 | 51 | 113 | 0.9 | 2.6 | 0.00 | 0.00 | 0.00 | 76 | 1012.9 |
| 20260504044728 | 51 | 113 | 0.9 | 2.6 | 0.00 | 0.00 | 0.00 | 76 | 1012.9 |
| 20260504044630 | 51 | 114 | 0.9 | 2.6 | 0.00 | 0.00 | 0.00 | 76 | 1012.9 |
| 20260504044528 | 51 | 112 | 0.9 | 2.6 | 0.00 | 0.00 | 0.00 | 76 | 1012.8 |
| 20260504044428 | 51 | 115 | 0.9 | 2.6 | 0.00 | 0.00 | 0.00 | 77 | 1012.8 |
| 20260504044329 | 51 | 115 | 0.9 | 2.6 | 0.00 | 0.00 | 0.00 | 76 | 1012.8 |
| 20260504044300 | 51 | 113 | 0.9 | 2.6 | 0.00 | 0.00 | 0.00 | 76 | 1012.8 |
| 20260504044229 | 51 | 117 | 0.9 | 2.6 | 0.00 | 0.00 | 0.00 | 76 | 1012.8 |
| 20260504044129 | 51 | 107 | 0.9 | 2.6 | 0.00 | 0.00 | 0.00 | 76 | 1012.8 |
| 20260504044029 | 51 | 107 | 0.9 | 2.6 | 0.00 | 0.00 | 0.00 | 77 | 1012.8 |
| 20260504043929 | 51 | 96 | 0.0 | 2.6 | 0.00 | 0.00 | 0.00 | 76 | 1012.8 |
| 20260504043801 | 51 | 92 | 0.0 | 1.7 | 0.00 | 0.00 | 0.00 | 76 | 1012.8 |
| 20260504043728 | 51 | 92 | 0.0 | 1.7 | 0.00 | 0.00 | 0.00 | 76 | 1012.8 |
| 20260504043628 | 51 | 92 | 0.0 | 0.9 | 0.00 | 0.00 | 0.00 | 76 | 1012.8 |
| 20260504043528 | 51 | 92 | 0.0 | 0.9 | 0.00 | 0.00 | 0.00 | 76 | 1012.8 |
| 20260504043428 | 51 | 92 | 0.0 | 1.7 | 0.00 | 0.00 | 0.00 | 76 | 1012.8 |
| 20260504043300 | 51 | 92 | 0.0 | 1.7 | 0.00 | 0.00 | 0.00 | 76 | 1012.8 |
| 20260504043228 | 51 | 92 | 0.0 | 1.7 | 0.00 | 0.00 | 0.00 | 76 | 1012.8 |
| 20260504043129 | 51 | 92 | 0.0 | 2.6 | 0.00 | 0.00 | 0.00 | 76 | 1012.8 |
| 20260504043029 | 51 | 92 | 0.9 | 2.6 | 0.00 | 0.00 | 0.00 | 76 | 1012.8 |
| 20260504042929 | 51 | 92 | 0.9 | 2.6 | 0.00 | 0.00 | 0.00 | 76 | 1012.8 |
| 20260504042800 | 51 | 92 | 0.9 | 2.6 | 0.00 | 0.00 | 0.00 | 76 | 1012.8 |
| 20260504042729 | 51 | 92 | 0.9 | 2.6 | 0.00 | 0.00 | 0.00 | 76 | 1012.8 |
| 20260504042628 | 51 | 92 | 0.9 | 2.6 | 0.00 | 0.00 | 0.00 | 76 | 1012.8 |
| 20260504042529 | 51 | 92 | 0.9 | 2.6 | 0.00 | 0.00 | 0.00 | 76 | 1012.8 |
| 20260504042428 | 51 | 92 | 0.9 | 2.6 | 0.00 | 0.00 | 0.00 | 76 | 1012.8 |
| 20260504042301 | 51 | 91 | 0.9 | 2.6 | 0.00 | 0.00 | 0.00 | 75 | 1012.8 |
| 20260504042228 | 51 | 91 | 0.9 | 2.6 | 0.00 | 0.00 | 0.00 | 76 | 1012.8 |
| 20260504042129 | 51 | 85 | 0.0 | 1.7 | 0.00 | 0.00 | 0.00 | 75 | 1012.8 |
| 20260504042029 | 51 | 83 | 0.0 | 1.7 | 0.00 | 0.00 | 0.00 | 75 | 1012.8 |
| 20260504041928 | 51 | 82 | 0.0 | 1.7 | 0.00 | 0.00 | 0.00 | 75 | 1012.8 |
| 20260504041801 | 51 | 81 | 0.0 | 1.7 | 0.00 | 0.00 | 0.00 | 75 | 1012.8 |
| 20260504041728 | 51 | 80 | 0.0 | 2.6 | 0.00 | 0.00 | 0.00 | 75 | 1012.8 |
| 20260504041628 | 51 | 80 | 0.0 | 2.6 | 0.00 | 0.00 | 0.00 | 75 | 1012.8 |
| 20260504041528 | 51 | 80 | 0.0 | 2.6 | 0.00 | 0.00 | 0.00 | 75 | 1012.9 |
| 20260504041429 | 51 | 80 | 0.9 | 2.6 | 0.00 | 0.00 | 0.00 | 75 | 1012.9 |
| 20260504041300 | 51 | 80 | 0.9 | 2.6 | 0.00 | 0.00 | 0.00 | 75 | 1012.8 |
| 20260504041229 | 51 | 80 | 0.9 | 2.6 | 0.00 | 0.00 | 0.00 | 75 | 1012.9 |
| 20260504041128 | 51 | 80 | 0.9 | 2.6 | 0.00 | 0.00 | 0.00 | 75 | 1012.9 |
| 20260504041028 | 51 | 80 | 0.9 | 2.6 | 0.00 | 0.00 | 0.00 | 75 | 1012.8 |
| 20260504040928 | 51 | 80 | 0.9 | 2.6 | 0.00 | 0.00 | 0.00 | 75 | 1012.8 |
| 20260504040800 | 51 | 80 | 0.0 | 2.6 | 0.00 | 0.00 | 0.00 | 75 | 1012.9 |
| 20260504040729 | 51 | 78 | 0.0 | 2.6 | 0.00 | 0.00 | 0.00 | 75 | 1012.8 |
| 20260504040629 | 51 | 92 | 0.0 | 1.7 | 0.00 | 0.00 | 0.00 | 74 | 1012.9 |
| 20260504040528 | 51 | 103 | 0.0 | 1.7 | 0.00 | 0.00 | 0.00 | 75 | 1012.8 |
| 20260504040428 | 51 | 94 | 0.0 | 1.7 | 0.00 | 0.00 | 0.00 | 75 | 1012.9 |
| 20260504040328 | 51 | 90 | 0.0 | 1.7 | 0.00 | 0.00 | 0.00 | 75 | 1012.9 |
| 20260504040301 | 51 | 88 | 0.0 | 1.7 | 0.00 | 0.00 | 0.00 | 74 | 1012.9 |
| 20260504040228 | 51 | 88 | 0.0 | 1.7 | 0.00 | 0.00 | 0.00 | 74 | 1012.9 |
| 20260504040129 | 51 | 88 | 0.0 | 2.6 | 0.00 | 0.00 | 0.00 | 74 | 1012.9 |
| 20260504040028 | 51 | 88 | 0.0 | 2.6 | 0.00 | 0.00 | 0.00 | 74 | 1012.9 |
| 20260504035928 | 51 | 88 | 0.0 | 2.6 | 0.00 | 0.00 | 0.00 | 74 | 1012.9 |
| 20260504035800 | 51 | 88 | 0.0 | 2.6 | 0.00 | 0.00 | 0.00 | 74 | 1012.9 |
| 20260504035729 | 51 | 88 | 0.0 | 2.6 | 0.00 | 0.00 | 0.00 | 74 | 1012.9 |
| 20260504035629 | 52 | 89 | 0.0 | 2.6 | 0.00 | 0.00 | 0.00 | 74 | 1013.0 |
| 20260504035528 | 52 | 86 | 0.9 | 2.6 | 0.00 | 0.00 | 0.00 | 74 | 1012.9 |
| 20260504035428 | 52 | 85 | 0.9 | 2.6 | 0.00 | 0.00 | 0.00 | 74 | 1012.9 |
| 20260504035328 | 52 | 86 | 0.9 | 2.6 | 0.00 | 0.00 | 0.00 | 74 | 1012.9 |
| 20260504035301 | 52 | 85 | 0.9 | 2.6 | 0.00 | 0.00 | 0.00 | 74 | 1012.9 |
| 20260504035228 | 52 | 85 | 0.0 | 2.6 | 0.00 | 0.00 | 0.00 | 74 | 1012.9 |
| 20260504035128 | 52 | 106 | 0.0 | 1.7 | 0.00 | 0.00 | 0.00 | 74 | 1013.0 |
| 20260504035029 | 52 | 106 | 0.0 | 1.7 | 0.00 | 0.00 | 0.00 | 74 | 1013.0 |
| 20260504035016 | 52 | 104 | 0.0 | 1.7 | 0.00 | 0.00 | 0.00 | 74 | 1013.0 |
| 20260504035011 | 52 | 104 | 0.0 | 1.7 | 0.00 | 0.00 | 0.00 | 73 | 1013.0 |
| 20260504034729 | 52 | 104 | 0.9 | 1.7 | 0.00 | 0.00 | 0.00 | 73 | 1013.0 |
| 20260504034629 | 52 | 104 | 0.0 | 1.7 | 0.00 | 0.00 | 0.00 | 73 | 1013.1 |
| 20260504034600 | 52 | 105 | 0.0 | 1.7 | 0.00 | 0.00 | 0.00 | 73 | 1013.1 |
| 20260504034429 | 52 | 105 | 0.0 | 1.7 | 0.00 | 0.00 | 0.00 | 73 | 1013.1 |
| 20260504034300 | 52 | 105 | 0.0 | 1.7 | 0.00 | 0.00 | 0.00 | 73 | 1013.0 |
| 20260504034228 | 52 | 105 | 0.0 | 1.7 | 0.00 | 0.00 | 0.00 | 73 | 1013.0 |
| 20260504034128 | 52 | 104 | 0.0 | 1.7 | 0.00 | 0.00 | 0.00 | 73 | 1013.1 |
| 20260504034028 | 52 | 105 | 0.0 | 1.7 | 0.00 | 0.00 | 0.00 | 73 | 1013.1 |
| 20260504033928 | 52 | 105 | 0.0 | 1.7 | 0.00 | 0.00 | 0.00 | 73 | 1013.0 |
| 20260504033800 | 52 | 105 | 0.0 | 1.7 | 0.00 | 0.00 | 0.00 | 73 | 1013.1 |
| 20260504033753 | 53 | 105 | 0.9 | 2.6 | 0.00 | 0.00 | 0.00 | 72 | 1013.0 |
| 20260504033748 | 52 | 105 | 0.0 | 1.7 | 0.00 | 0.00 | 0.00 | 73 | 1013.0 |
| 20260504033744 | 53 | 105 | 0.0 | 1.7 | 0.00 | 0.00 | 0.00 | 73 | 1013.0 |
| 20260504033736 | 53 | 105 | 0.0 | 1.7 | 0.00 | 0.00 | 0.00 | 73 | 1013.0 |
| 20260504033517 | 53 | 105 | 0.0 | 1.7 | 0.00 | 0.00 | 0.00 | 73 | 1013.0 |
| 20260504033512 | 53 | 105 | 0.9 | 2.6 | 0.00 | 0.00 | 0.00 | 73 | 1013.0 |
| 20260504033228 | 53 | 105 | 0.9 | 2.6 | 0.00 | 0.00 | 0.00 | 72 | 1013.0 |
| 20260504033128 | 53 | 105 | 0.9 | 2.6 | 0.00 | 0.00 | 0.00 | 72 | 1013.0 |
| 20260504033029 | 53 | 105 | 0.9 | 2.6 | 0.00 | 0.00 | 0.00 | 72 | 1013.0 |
| 20260504033016 | 53 | 105 | 0.9 | 2.6 | 0.00 | 0.00 | 0.00 | 72 | 1013.0 |
| 20260504033011 | 53 | 105 | 0.9 | 2.6 | 0.00 | 0.00 | 0.00 | 72 | 1013.0 |
| 20260504032728 | 53 | 105 | 0.9 | 2.6 | 0.00 | 0.00 | 0.00 | 72 | 1013.0 |
| 20260504032628 | 53 | 105 | 0.9 | 2.6 | 0.00 | 0.00 | 0.00 | 72 | 1013.0 |
| 20260504032528 | 53 | 105 | 0.9 | 2.6 | 0.00 | 0.00 | 0.00 | 72 | 1013.0 |
| 20260504032428 | 53 | 105 | 0.9 | 2.6 | 0.00 | 0.00 | 0.00 | 72 | 1013.0 |
| 20260504032329 | 53 | 109 | 0.9 | 2.6 | 0.00 | 0.00 | 0.00 | 72 | 1013.0 |
| 20260504032300 | 53 | 105 | 0.9 | 2.6 | 0.00 | 0.00 | 0.00 | 72 | 1013.0 |
| 20260504032229 | 53 | 102 | 0.9 | 2.6 | 0.00 | 0.00 | 0.00 | 72 | 1013.0 |
| 20260504032129 | 53 | 102 | 0.9 | 2.6 | 0.00 | 0.00 | 0.00 | 72 | 1013.0 |
| 20260504032029 | 53 | 98 | 0.9 | 2.6 | 0.00 | 0.00 | 0.00 | 72 | 1013.0 |
| 20260504031929 | 53 | 97 | 0.9 | 1.7 | 0.00 | 0.00 | 0.00 | 72 | 1013.0 |
| 20260504031800 | 53 | 97 | 0.0 | 1.7 | 0.00 | 0.00 | 0.00 | 72 | 1013.0 |
| 20260504031728 | 53 | 96 | 0.0 | 1.7 | 0.00 | 0.00 | 0.00 | 72 | 1013.0 |
| 20260504031628 | 53 | 96 | 0.9 | 1.7 | 0.00 | 0.00 | 0.00 | 72 | 1013.0 |
| 20260504031528 | 53 | 96 | 0.0 | 1.7 | 0.00 | 0.00 | 0.00 | 72 | 1013.0 |
| 20260504031428 | 53 | 97 | 0.0 | 1.7 | 0.00 | 0.00 | 0.00 | 72 | 1013.0 |
| 20260504031302 | 53 | 96 | 0.9 | 1.7 | 0.00 | 0.00 | 0.00 | 72 | 1013.0 |
| 20260504031229 | 53 | 96 | 0.9 | 1.7 | 0.00 | 0.00 | 0.00 | 72 | 1013.0 |
| 20260504031129 | 53 | 96 | 0.0 | 1.7 | 0.00 | 0.00 | 0.00 | 72 | 1013.0 |
| 20260504031029 | 53 | 96 | 0.0 | 1.7 | 0.00 | 0.00 | 0.00 | 72 | 1013.0 |
| 20260504030929 | 53 | 96 | 0.0 | 1.7 | 0.00 | 0.00 | 0.00 | 72 | 1013.0 |
| 20260504030801 | 53 | 96 | 0.0 | 1.7 | 0.00 | 0.00 | 0.00 | 72 | 1013.0 |
| 20260504030730 | 53 | 96 | 0.0 | 1.7 | 0.00 | 0.00 | 0.00 | 72 | 1012.9 |
| 20260504030629 | 53 | 96 | 0.0 | 1.7 | 0.00 | 0.00 | 0.00 | 72 | 1013.0 |
| 20260504030529 | 53 | 96 | 0.0 | 1.7 | 0.00 | 0.00 | 0.00 | 72 | 1013.0 |
| 20260504030429 | 53 | 96 | 0.0 | 1.7 | 0.00 | 0.00 | 0.00 | 72 | 1013.1 |
| 20260504030301 | 53 | 96 | 0.0 | 1.7 | 0.00 | 0.00 | 0.00 | 72 | 1013.1 |
| 20260504030229 | 53 | 96 | 0.0 | 1.7 | 0.00 | 0.00 | 0.00 | 72 | 1013.1 |
| 20260504030129 | 53 | 96 | 0.0 | 1.7 | 0.00 | 0.00 | 0.00 | 72 | 1013.1 |
| 20260504030033 | 53 | 96 | 0.0 | 1.7 | 0.00 | 0.00 | 0.00 | 73 | 1013.1 |
| 20260504025929 | 53 | 96 | 0.0 | 1.7 | 0.00 | 0.00 | 0.00 | 72 | 1013.1 |
| 20260504025829 | 53 | 96 | 0.0 | 1.7 | 0.00 | 0.00 | 0.00 | 72 | 1013.1 |
| 20260504025801 | 53 | 96 | 0.0 | 1.7 | 0.00 | 0.00 | 0.00 | 73 | 1013.1 |
| 20260504025729 | 53 | 101 | 0.9 | 1.7 | 0.00 | 0.00 | 0.00 | 73 | 1013.1 |
| 20260504025629 | 53 | 100 | 0.9 | 1.7 | 0.00 | 0.00 | 0.00 | 73 | 1013.1 |
| 20260504025530 | 53 | 100 | 0.9 | 2.6 | 0.00 | 0.00 | 0.00 | 73 | 1013.1 |
| 20260504025429 | 53 | 100 | 0.9 | 2.6 | 0.00 | 0.00 | 0.00 | 73 | 1013.0 |
| 20260504025301 | 53 | 100 | 0.9 | 2.6 | 0.00 | 0.00 | 0.00 | 73 | 1013.1 |
| 20260504025251 | 53 | 98 | 0.9 | 2.6 | 0.00 | 0.00 | 0.00 | 73 | 1013.1 |
| 20260504025243 | 53 | 100 | 0.9 | 2.6 | 0.00 | 0.00 | 0.00 | 73 | 1013.1 |
| 20260504025239 | 53 | 100 | 0.9 | 2.6 | 0.00 | 0.00 | 0.00 | 73 | 1013.1 |
| 20260504025235 | 53 | 100 | 0.9 | 2.6 | 0.00 | 0.00 | 0.00 | 73 | 1013.1 |
| 20260504025015 | 53 | 100 | 0.9 | 2.6 | 0.00 | 0.00 | 0.00 | 73 | 1013.1 |
| 20260504025011 | 53 | 98 | 0.9 | 2.6 | 0.00 | 0.00 | 0.00 | 73 | 1013.1 |
| 20260504024728 | 53 | 98 | 0.9 | 2.6 | 0.00 | 0.00 | 0.00 | 73 | 1013.1 |
| 20260504024628 | 53 | 98 | 0.9 | 2.6 | 0.00 | 0.00 | 0.00 | 73 | 1013.1 |
| 20260504024529 | 53 | 105 | 0.9 | 1.7 | 0.00 | 0.00 | 0.00 | 73 | 1013.0 |
| 20260504024428 | 53 | 106 | 0.9 | 1.7 | 0.00 | 0.00 | 0.00 | 73 | 1013.1 |
| 20260504024327 | 53 | 106 | 0.9 | 1.7 | 0.00 | 0.00 | 0.00 | 73 | 1013.0 |
| 20260504024302 | 53 | 107 | 0.9 | 1.7 | 0.00 | 0.00 | 0.00 | 73 | 1013.0 |
| 20260504024226 | 53 | 107 | 0.9 | 1.7 | 0.00 | 0.00 | 0.00 | 73 | 1013.1 |
| 20260504024126 | 53 | 107 | 0.9 | 1.7 | 0.00 | 0.00 | 0.00 | 73 | 1013.1 |
| 20260504024028 | 53 | 107 | 0.9 | 1.7 | 0.00 | 0.00 | 0.00 | 73 | 1013.1 |
| 20260504023924 | 53 | 107 | 0.9 | 1.7 | 0.00 | 0.00 | 0.00 | 73 | 1013.2 |
| 20260504023801 | 53 | 107 | 0.9 | 1.7 | 0.00 | 0.00 | 0.00 | 73 | 1013.2 |
| 20260504023723 | 53 | 107 | 0.9 | 1.7 | 0.00 | 0.00 | 0.00 | 73 | 1013.2 |
| 20260504023621 | 53 | 107 | 0.9 | 1.7 | 0.00 | 0.00 | 0.00 | 73 | 1013.2 |
| 20260504023520 | 53 | 107 | 0.9 | 1.7 | 0.00 | 0.00 | 0.00 | 73 | 1013.2 |
| 20260504023418 | 53 | 107 | 0.9 | 1.7 | 0.00 | 0.00 | 0.00 | 73 | 1013.2 |
| 20260504023301 | 52 | 107 | 0.9 | 1.7 | 0.00 | 0.00 | 0.00 | 73 | 1013.2 |
| 20260504023216 | 52 | 107 | 0.9 | 1.7 | 0.00 | 0.00 | 0.00 | 73 | 1013.3 |
| 20260504023114 | 52 | 107 | 0.9 | 1.7 | 0.00 | 0.00 | 0.00 | 73 | 1013.3 |
| 20260504023014 | 52 | 107 | 0.9 | 1.7 | 0.00 | 0.00 | 0.00 | 73 | 1013.3 |
| 20260504022912 | 52 | 107 | 0.9 | 1.7 | 0.00 | 0.00 | 0.00 | 73 | 1013.3 |
| 20260504022800 | 52 | 107 | 0.9 | 1.7 | 0.00 | 0.00 | 0.00 | 73 | 1013.2 |
| 20260504022709 | 52 | 107 | 0.9 | 1.7 | 0.00 | 0.00 | 0.00 | 74 | 1013.2 |
| 20260504022608 | 52 | 107 | 0.9 | 1.7 | 0.00 | 0.00 | 0.00 | 74 | 1013.3 |
| 20260504022512 | 52 | 107 | 0.9 | 1.7 | 0.00 | 0.00 | 0.00 | 74 | 1013.3 |
| 20260504022406 | 52 | 106 | 0.9 | 1.7 | 0.00 | 0.00 | 0.00 | 74 | 1013.3 |
| 20260504022301 | 52 | 106 | 0.9 | 1.7 | 0.00 | 0.00 | 0.00 | 74 | 1013.3 |
| 20260504022253 | 52 | 107 | 0.0 | 1.7 | 0.00 | 0.00 | 0.00 | 74 | 1013.2 |
| 20260504022240 | 52 | 107 | 0.0 | 1.7 | 0.00 | 0.00 | 0.00 | 74 | 1013.3 |
| 20260504022236 | 52 | 107 | 0.0 | 1.7 | 0.00 | 0.00 | 0.00 | 74 | 1013.3 |
| 20260504022021 | 52 | 106 | 0.0 | 1.7 | 0.00 | 0.00 | 0.00 | 74 | 1013.3 |
| 20260504022013 | 52 | 106 | 0.0 | 1.7 | 0.00 | 0.00 | 0.00 | 74 | 1013.3 |
| 20260504022009 | 52 | 107 | 0.0 | 1.7 | 0.00 | 0.00 | 0.00 | 74 | 1013.2 |
| 20260504021704 | 52 | 106 | 0.0 | 1.7 | 0.00 | 0.00 | 0.00 | 74 | 1013.2 |
| 20260504021604 | 52 | 111 | 0.0 | 1.7 | 0.00 | 0.00 | 0.00 | 75 | 1013.2 |
| 20260504021510 | 52 | 113 | 0.0 | 1.7 | 0.00 | 0.00 | 0.00 | 74 | 1013.2 |
| 20260504021401 | 52 | 113 | 0.0 | 1.7 | 0.00 | 0.00 | 0.00 | 74 | 1013.3 |
| 20260504021301 | 52 | 115 | 0.0 | 0.9 | 0.00 | 0.00 | 0.00 | 74 | 1013.3 |
| 20260504021252 | 52 | 115 | 0.0 | 0.9 | 0.00 | 0.00 | 0.00 | 74 | 1013.3 |
| 20260504021201 | 52 | 115 | 0.0 | 0.9 | 0.00 | 0.00 | 0.00 | 75 | 1013.3 |
| 20260504021101 | 52 | 115 | 0.0 | 0.9 | 0.00 | 0.00 | 0.00 | 75 | 1013.3 |
| 20260504021013 | 51 | 114 | 0.0 | 0.9 | 0.00 | 0.00 | 0.00 | 75 | 1013.2 |
| 20260504021009 | 52 | 115 | 0.0 | 0.9 | 0.00 | 0.00 | 0.00 | 75 | 1013.3 |
| 20260504021001 | 51 | 115 | 0.0 | 0.9 | 0.00 | 0.00 | 0.00 | 75 | 1013.3 |
| 20260504020957 | 51 | 114 | 0.0 | 0.9 | 0.00 | 0.00 | 0.00 | 75 | 1013.3 |
| 20260504020702 | 51 | 115 | 0.0 | 0.9 | 0.00 | 0.00 | 0.00 | 75 | 1013.2 |
| 20260504020601 | 51 | 117 | 0.0 | 1.7 | 0.00 | 0.00 | 0.00 | 75 | 1013.2 |
| 20260504020506 | 51 | 120 | 0.0 | 1.7 | 0.00 | 0.00 | 0.00 | 75 | 1013.3 |
| 20260504020401 | 51 | 120 | 0.0 | 1.7 | 0.00 | 0.00 | 0.00 | 75 | 1013.2 |
| 20260504020301 | 51 | 120 | 0.0 | 1.7 | 0.00 | 0.00 | 0.00 | 75 | 1013.3 |
| 20260504020239 | 51 | 121 | 0.0 | 1.7 | 0.00 | 0.00 | 0.00 | 75 | 1013.3 |
| 20260504020201 | 51 | 122 | 0.0 | 1.7 | 0.00 | 0.00 | 0.00 | 75 | 1013.3 |
| 20260504020100 | 51 | 122 | 0.0 | 1.7 | 0.00 | 0.00 | 0.00 | 75 | 1013.3 |
| 20260504020004 | 51 | 122 | 0.9 | 1.7 | 0.00 | 0.00 | 0.00 | 76 | 1013.3 |
| 20260504015901 | 51 | 122 | 0.9 | 1.7 | 0.00 | 0.00 | 0.00 | 76 | 1013.3 |
| 20260504015801 | 51 | 122 | 0.9 | 1.7 | 0.00 | 0.00 | 0.00 | 76 | 1013.3 |
| 20260504015740 | 51 | 122 | 0.9 | 1.7 | 0.00 | 0.00 | 0.00 | 76 | 1013.4 |
| 20260504015701 | 51 | 123 | 0.9 | 1.7 | 0.00 | 0.00 | 0.00 | 76 | 1013.4 |
| 20260504015600 | 51 | 124 | 0.9 | 1.7 | 0.00 | 0.00 | 0.00 | 76 | 1013.4 |
| 20260504015501 | 51 | 124 | 0.9 | 1.7 | 0.00 | 0.00 | 0.00 | 76 | 1013.4 |
| 20260504015400 | 51 | 124 | 0.9 | 1.7 | 0.00 | 0.00 | 0.00 | 76 | 1013.4 |
| 20260504015300 | 51 | 124 | 0.9 | 1.7 | 0.00 | 0.00 | 0.00 | 76 | 1013.4 |
| 20260504015238 | 51 | 124 | 0.9 | 1.7 | 0.00 | 0.00 | 0.00 | 76 | 1013.4 |
| 20260504015200 | 51 | 124 | 0.9 | 1.7 | 0.00 | 0.00 | 0.00 | 76 | 1013.4 |
| 20260504015101 | 51 | 124 | 0.9 | 1.7 | 0.00 | 0.00 | 0.00 | 76 | 1013.4 |
| 20260504015001 | 51 | 124 | 0.9 | 1.7 | 0.00 | 0.00 | 0.00 | 76 | 1013.3 |
| 20260504014901 | 51 | 124 | 0.9 | 1.7 | 0.00 | 0.00 | 0.00 | 76 | 1013.3 |
| 20260504014736 | 51 | 124 | 0.9 | 1.7 | 0.00 | 0.00 | 0.00 | 76 | 1013.3 |
| 20260504014658 | 51 | 124 | 0.9 | 1.7 | 0.00 | 0.00 | 0.00 | 76 | 1013.3 |
| 20260504014558 | 51 | 124 | 0.0 | 1.7 | 0.00 | 0.00 | 0.00 | 76 | 1013.4 |
| 20260504014458 | 51 | 124 | 0.0 | 1.7 | 0.00 | 0.00 | 0.00 | 76 | 1013.4 |
| 20260504014357 | 51 | 124 | 0.0 | 1.7 | 0.00 | 0.00 | 0.00 | 76 | 1013.3 |
| 20260504014234 | 51 | 124 | 0.0 | 1.7 | 0.00 | 0.00 | 0.00 | 76 | 1013.3 |
| 20260504014156 | 51 | 124 | 0.0 | 1.7 | 0.00 | 0.00 | 0.00 | 76 | 1013.3 |
| 20260504014056 | 51 | 124 | 0.9 | 1.7 | 0.00 | 0.00 | 0.00 | 76 | 1013.3 |
| 20260504013955 | 51 | 124 | 0.9 | 1.7 | 0.00 | 0.00 | 0.00 | 75 | 1013.3 |
| 20260504013851 | 51 | 124 | 0.9 | 1.7 | 0.00 | 0.00 | 0.00 | 75 | 1013.3 |
| 20260504013748 | 51 | 124 | 0.9 | 1.7 | 0.00 | 0.00 | 0.00 | 75 | 1013.3 |
| 20260504013732 | 51 | 125 | 0.9 | 1.7 | 0.00 | 0.00 | 0.00 | 75 | 1013.3 |
| 20260504013646 | 51 | 124 | 0.9 | 1.7 | 0.00 | 0.00 | 0.00 | 75 | 1013.4 |
| 20260504013546 | 51 | 124 | 0.9 | 1.7 | 0.00 | 0.00 | 0.00 | 75 | 1013.4 |
| 20260504013446 | 51 | 125 | 0.9 | 1.7 | 0.00 | 0.00 | 0.00 | 75 | 1013.4 |
| 20260504013345 | 51 | 124 | 0.9 | 1.7 | 0.00 | 0.00 | 0.00 | 75 | 1013.4 |
| 20260504013244 | 51 | 125 | 0.9 | 1.7 | 0.00 | 0.00 | 0.00 | 75 | 1013.4 |
| 20260504013232 | 51 | 125 | 0.9 | 1.7 | 0.00 | 0.00 | 0.00 | 74 | 1013.4 |
| 20260504013144 | 52 | 125 | 0.9 | 1.7 | 0.00 | 0.00 | 0.00 | 75 | 1013.4 |
| 20260504013044 | 52 | 125 | 0.9 | 1.7 | 0.00 | 0.00 | 0.00 | 75 | 1013.4 |
| 20260504012942 | 52 | 125 | 0.9 | 1.7 | 0.00 | 0.00 | 0.00 | 74 | 1013.4 |
| 20260504012840 | 52 | 125 | 0.9 | 1.7 | 0.00 | 0.00 | 0.00 | 74 | 1013.4 |
| 20260504012733 | 52 | 125 | 0.9 | 1.7 | 0.00 | 0.00 | 0.00 | 74 | 1013.4 |
| 20260504012638 | 52 | 125 | 0.9 | 1.7 | 0.00 | 0.00 | 0.00 | 74 | 1013.4 |
| 20260504012536 | 52 | 125 | 0.9 | 1.7 | 0.00 | 0.00 | 0.00 | 74 | 1013.4 |
| 20260504012451 | 52 | 125 | 0.9 | 1.7 | 0.00 | 0.00 | 0.00 | 74 | 1013.4 |
| 20260504012447 | 52 | 125 | 0.9 | 1.7 | 0.00 | 0.00 | 0.00 | 74 | 1013.4 |
| 20260504012443 | 52 | 125 | 0.9 | 1.7 | 0.00 | 0.00 | 0.00 | 74 | 1013.3 |
| 20260504012134 | 52 | 125 | 0.0 | 1.7 | 0.00 | 0.00 | 0.00 | 74 | 1013.3 |
| 20260504012032 | 52 | 125 | 0.0 | 1.7 | 0.00 | 0.00 | 0.00 | 74 | 1013.3 |
| 20260504011930 | 52 | 125 | 0.0 | 1.7 | 0.00 | 0.00 | 0.00 | 74 | 1013.3 |
| 20260504011830 | 52 | 125 | 0.0 | 1.7 | 0.00 | 0.00 | 0.00 | 74 | 1013.3 |
| 20260504011730 | 52 | 125 | 0.0 | 1.7 | 0.00 | 0.00 | 0.00 | 74 | 1013.3 |
| 20260504011629 | 52 | 125 | 0.0 | 1.7 | 0.00 | 0.00 | 0.00 | 74 | 1013.3 |
| 20260504011529 | 52 | 125 | 0.0 | 1.7 | 0.00 | 0.00 | 0.00 | 74 | 1013.3 |
| 20260504011429 | 52 | 125 | 0.0 | 1.7 | 0.00 | 0.00 | 0.00 | 74 | 1013.3 |
| 20260504011329 | 52 | 125 | 0.0 | 1.7 | 0.00 | 0.00 | 0.00 | 74 | 1013.3 |
| 20260504011229 | 52 | 125 | 0.9 | 1.7 | 0.00 | 0.00 | 0.00 | 73 | 1013.3 |
| 20260504011129 | 52 | 125 | 0.9 | 1.7 | 0.00 | 0.00 | 0.00 | 73 | 1013.3 |
| 20260504011029 | 52 | 125 | 0.9 | 1.7 | 0.00 | 0.00 | 0.00 | 73 | 1013.3 |
| 20260504010929 | 52 | 125 | 0.9 | 1.7 | 0.00 | 0.00 | 0.00 | 73 | 1013.3 |
| 20260504010829 | 52 | 125 | 0.9 | 1.7 | 0.00 | 0.00 | 0.00 | 73 | 1013.3 |
| 20260504010729 | 52 | 125 | 0.9 | 1.7 | 0.00 | 0.00 | 0.00 | 73 | 1013.3 |
| 20260504010629 | 52 | 125 | 0.9 | 1.7 | 0.00 | 0.00 | 0.00 | 73 | 1013.3 |
| 20260504010529 | 52 | 125 | 0.9 | 1.7 | 0.00 | 0.00 | 0.00 | 73 | 1013.3 |
| 20260504010429 | 53 | 125 | 0.9 | 1.7 | 0.00 | 0.00 | 0.00 | 73 | 1013.3 |
| 20260504010329 | 53 | 125 | 0.9 | 1.7 | 0.00 | 0.00 | 0.00 | 73 | 1013.3 |
| 20260504010229 | 53 | 125 | 0.9 | 1.7 | 0.00 | 0.00 | 0.00 | 73 | 1013.3 |
| 20260504010129 | 53 | 125 | 0.0 | 1.7 | 0.00 | 0.00 | 0.00 | 73 | 1013.3 |
| 20260504010029 | 53 | 124 | 0.0 | 1.7 | 0.00 | 0.00 | 0.00 | 73 | 1013.3 |
| 20260504005928 | 53 | 124 | 0.0 | 0.9 | 0.00 | 0.00 | 0.00 | 73 | 1013.3 |
| 20260504005829 | 53 | 124 | 0.0 | 1.7 | 0.00 | 0.00 | 0.00 | 73 | 1013.3 |
| 20260504005729 | 53 | 124 | 0.9 | 1.7 | 0.00 | 0.00 | 0.00 | 73 | 1013.3 |
| 20260504005629 | 53 | 124 | 0.9 | 1.7 | 0.00 | 0.00 | 0.00 | 73 | 1013.3 |
| 20260504005529 | 53 | 124 | 0.9 | 1.7 | 0.00 | 0.00 | 0.00 | 73 | 1013.3 |
| 20260504005429 | 53 | 124 | 0.9 | 1.7 | 0.00 | 0.00 | 0.00 | 73 | 1013.3 |
| 20260504005329 | 53 | 124 | 0.9 | 1.7 | 0.00 | 0.00 | 0.00 | 73 | 1013.3 |
| 20260504005229 | 53 | 124 | 0.9 | 1.7 | 0.00 | 0.00 | 0.00 | 72 | 1013.3 |
| 20260504005128 | 53 | 124 | 0.9 | 1.7 | 0.00 | 0.00 | 0.00 | 72 | 1013.3 |
| 20260504005028 | 53 | 124 | 0.9 | 1.7 | 0.00 | 0.00 | 0.00 | 72 | 1013.3 |
| 20260504004933 | 53 | 124 | 0.9 | 1.7 | 0.00 | 0.00 | 0.00 | 72 | 1013.3 |
| 20260504004828 | 53 | 124 | 0.0 | 1.7 | 0.00 | 0.00 | 0.00 | 72 | 1013.3 |
| 20260504004727 | 53 | 124 | 0.0 | 1.7 | 0.00 | 0.00 | 0.00 | 72 | 1013.3 |
| 20260504004628 | 53 | 124 | 0.0 | 1.7 | 0.00 | 0.00 | 0.00 | 73 | 1013.4 |
| 20260504004528 | 53 | 124 | 0.0 | 1.7 | 0.00 | 0.00 | 0.00 | 72 | 1013.3 |
| 20260504004432 | 53 | 124 | 0.0 | 0.9 | 0.00 | 0.00 | 0.00 | 72 | 1013.3 |
| 20260504004328 | 53 | 124 | 0.0 | 0.9 | 0.00 | 0.00 | 0.00 | 72 | 1013.3 |
| 20260504004226 | 53 | 124 | 0.0 | 1.7 | 0.00 | 0.00 | 0.00 | 72 | 1013.3 |
| 20260504004126 | 53 | 124 | 0.0 | 1.7 | 0.00 | 0.00 | 0.00 | 72 | 1013.3 |
| 20260504004024 | 53 | 124 | 0.0 | 1.7 | 0.00 | 0.00 | 0.00 | 72 | 1013.3 |
| 20260504003955 | 53 | 124 | 0.0 | 1.7 | 0.00 | 0.00 | 0.00 | 72 | 1013.3 |
| 20260504003950 | 53 | 124 | 0.0 | 1.7 | 0.00 | 0.00 | 0.00 | 72 | 1013.3 |
| 20260504003942 | 53 | 124 | 0.0 | 1.7 | 0.00 | 0.00 | 0.00 | 72 | 1013.4 |
| 20260504003725 | 53 | 124 | 0.0 | 1.7 | 0.00 | 0.00 | 0.00 | 71 | 1013.5 |
| 20260504003716 | 53 | 124 | 0.0 | 1.7 | 0.00 | 0.00 | 0.00 | 72 | 1013.3 |
| 20260504003710 | 53 | 124 | 0.0 | 1.7 | 0.00 | 0.00 | 0.00 | 71 | 1013.3 |
| 20260504003706 | 53 | 124 | 0.0 | 1.7 | 0.00 | 0.00 | 0.00 | 71 | 1013.4 |
| 20260504003445 | 53 | 124 | 0.0 | 1.7 | 0.00 | 0.00 | 0.00 | 71 | 1013.4 |
| 20260504003441 | 53 | 124 | 0.0 | 1.7 | 0.00 | 0.00 | 0.00 | 71 | 1013.4 |
| 20260504003209 | 53 | 124 | 0.0 | 1.7 | 0.00 | 0.00 | 0.00 | 71 | 1013.5 |
| 20260504003110 | 53 | 124 | 0.0 | 1.7 | 0.00 | 0.00 | 0.00 | 71 | 1013.4 |
| 20260504003010 | 53 | 124 | 0.0 | 1.7 | 0.00 | 0.00 | 0.00 | 71 | 1013.5 |
| 20260504002909 | 53 | 124 | 0.0 | 0.9 | 0.00 | 0.00 | 0.00 | 71 | 1013.5 |
| 20260504002810 | 53 | 124 | 0.0 | 0.9 | 0.00 | 0.00 | 0.00 | 71 | 1013.5 |
| 20260504002708 | 53 | 124 | 0.0 | 0.9 | 0.00 | 0.00 | 0.00 | 71 | 1013.5 |
| 20260504002608 | 53 | 124 | 0.0 | 0.9 | 0.00 | 0.00 | 0.00 | 71 | 1013.5 |
| 20260504002506 | 53 | 124 | 0.0 | 0.9 | 0.00 | 0.00 | 0.00 | 71 | 1013.5 |
| 20260504002404 | 53 | 124 | 0.0 | 0.9 | 0.00 | 0.00 | 0.00 | 71 | 1013.5 |
| 20260504002303 | 53 | 124 | 0.0 | 0.9 | 0.00 | 0.00 | 0.00 | 72 | 1013.5 |
| 20260504002229 | 53 | 124 | 0.0 | 0.9 | 0.00 | 0.00 | 0.00 | 72 | 1013.6 |
| 20260504002102 | 53 | 124 | 0.0 | 1.7 | 0.00 | 0.00 | 0.00 | 72 | 1013.6 |
| 20260504002002 | 53 | 124 | 0.0 | 2.6 | 0.00 | 0.00 | 0.00 | 71 | 1013.6 |
| 20260504001902 | 53 | 124 | 0.0 | 2.6 | 0.00 | 0.00 | 0.00 | 71 | 1013.6 |
| 20260504001802 | 53 | 124 | 0.0 | 2.6 | 0.00 | 0.00 | 0.00 | 71 | 1013.6 |
| 20260504001701 | 53 | 124 | 0.0 | 2.6 | 0.00 | 0.00 | 0.00 | 71 | 1013.6 |
| 20260504001601 | 53 | 128 | 0.0 | 2.6 | 0.00 | 0.00 | 0.00 | 71 | 1013.6 |
| 20260504001501 | 53 | 129 | 0.0 | 2.6 | 0.00 | 0.00 | 0.00 | 71 | 1013.7 |
| 20260504001401 | 53 | 130 | 0.0 | 2.6 | 0.00 | 0.00 | 0.00 | 71 | 1013.7 |
| 20260504001301 | 53 | 129 | 0.0 | 2.6 | 0.00 | 0.00 | 0.00 | 70 | 1013.7 |
| 20260504001201 | 53 | 129 | 0.0 | 2.6 | 0.00 | 0.00 | 0.00 | 70 | 1013.6 |
| 20260504001101 | 53 | 129 | 0.0 | 2.6 | 0.00 | 0.00 | 0.00 | 70 | 1013.6 |
| 20260504001001 | 53 | 248 | 0.0 | 1.7 | 0.00 | 0.00 | 0.00 | 71 | 1013.6 |
| 20260504000901 | 53 | 263 | 0.0 | 0.9 | 0.00 | 0.00 | 0.00 | 70 | 1013.7 |
| 20260504000800 | 53 | 267 | 0.0 | 0.9 | 0.00 | 0.00 | 0.00 | 70 | 1013.7 |
| 20260504000701 | 53 | 267 | 0.0 | 0.9 | 0.00 | 0.00 | 0.00 | 70 | 1013.7 |
| 20260504000601 | 53 | 268 | 0.0 | 0.9 | 0.00 | 0.00 | 0.00 | 70 | 1013.7 |
| 20260504000501 | 53 | 268 | 0.0 | 0.9 | 0.00 | 0.00 | 0.00 | 71 | 1013.7 |
| 20260504000401 | 53 | 268 | 0.0 | 0.9 | 0.00 | 0.00 | 0.00 | 71 | 1013.7 |
| 20260504000301 | 53 | 268 | 0.0 | 0.9 | 0.00 | 0.00 | 0.00 | 70 | 1013.7 |
| 20260504000201 | 53 | 268 | 0.0 | 0.9 | 0.00 | 0.00 | 0.00 | 70 | 1013.6 |
| 20260504000100 | 53 | 269 | 0.0 | 0.9 | 0.00 | 0.00 | 0.00 | 70 | 1013.6 |
| 20260504000000 | 53 | 269 | 0.0 | 0.9 | 0.00 | 0.00 | 0.00 | 70 | 1013.6 |
| 20260503235903 | 53 | 269 | 0.0 | 0.9 | 0.00 | 0.00 | 0.00 | 70 | 1013.6 |
| 20260503235801 | 53 | 269 | 0.0 | 0.9 | 0.00 | 0.00 | 0.00 | 70 | 1013.6 |
| 20260503235701 | 53 | 269 | 0.0 | 0.9 | 0.00 | 0.00 | 0.00 | 69 | 1013.6 |
| 20260503235601 | 53 | 269 | 0.0 | 0.9 | 0.00 | 0.00 | 0.00 | 69 | 1013.6 |
| 20260503235501 | 53 | 269 | 0.0 | 0.9 | 0.00 | 0.00 | 0.00 | 69 | 1013.6 |
| 20260503235454 | 54 | 269 | 0.0 | 1.7 | 0.00 | 0.00 | 0.00 | 69 | 1013.5 |
| 20260503235448 | 54 | 269 | 0.0 | 1.7 | 0.00 | 0.00 | 0.00 | 69 | 1013.6 |
| 20260503235440 | 54 | 269 | 0.0 | 1.7 | 0.00 | 0.00 | 0.00 | 69 | 1013.6 |
| 20260503235200 | 54 | 269 | 0.0 | 1.7 | 0.00 | 0.00 | 0.00 | 69 | 1013.5 |
| 20260503235100 | 54 | 269 | 0.0 | 1.7 | 0.00 | 0.00 | 0.00 | 69 | 1013.6 |
| 20260503235000 | 54 | 269 | 0.0 | 1.7 | 0.00 | 0.00 | 0.00 | 69 | 1013.5 |
| 20260503234858 | 54 | 269 | 0.0 | 1.7 | 0.00 | 0.00 | 0.00 | 69 | 1013.5 |
| 20260503234730 | 54 | 269 | 0.0 | 1.7 | 0.00 | 0.00 | 0.00 | 69 | 1013.6 |
| 20260503234658 | 54 | 269 | 0.0 | 1.7 | 0.00 | 0.00 | 0.00 | 69 | 1013.6 |
| 20260503234558 | 54 | 269 | 0.0 | 1.7 | 0.00 | 0.00 | 0.00 | 69 | 1013.6 |
| 20260503234458 | 54 | 268 | 0.0 | 1.7 | 0.00 | 0.00 | 0.00 | 68 | 1013.6 |
| 20260503234354 | 54 | 268 | 0.0 | 0.9 | 0.00 | 0.00 | 0.00 | 68 | 1013.6 |
| 20260503234229 | 54 | 269 | 0.0 | 0.9 | 0.00 | 0.00 | 0.00 | 68 | 1013.6 |
| 20260503234153 | 54 | 269 | 0.0 | 0.9 | 0.00 | 0.00 | 0.00 | 68 | 1013.6 |
| 20260503234053 | 54 | 269 | 0.0 | 0.9 | 0.00 | 0.00 | 0.00 | 68 | 1013.5 |
| 20260503233951 | 54 | 269 | 0.0 | 0.9 | 0.00 | 0.00 | 0.00 | 68 | 1013.5 |
| 20260503233848 | 54 | 269 | 0.0 | 0.9 | 0.00 | 0.00 | 0.00 | 68 | 1013.5 |
| 20260503233728 | 54 | 269 | 0.0 | 0.9 | 0.00 | 0.00 | 0.00 | 67 | 1013.4 |
| 20260503233646 | 54 | 269 | 0.0 | 0.9 | 0.00 | 0.00 | 0.00 | 67 | 1013.4 |
| 20260503233546 | 54 | 269 | 0.0 | 1.7 | 0.00 | 0.00 | 0.00 | 67 | 1013.4 |
| 20260503233446 | 54 | 269 | 0.0 | 1.7 | 0.00 | 0.00 | 0.00 | 67 | 1013.4 |
| 20260503233346 | 54 | 269 | 0.9 | 1.7 | 0.00 | 0.00 | 0.00 | 67 | 1013.5 |
| 20260503233229 | 54 | 269 | 0.9 | 1.7 | 0.00 | 0.00 | 0.00 | 66 | 1013.5 |
| 20260503233222 | 55 | 269 | 0.9 | 2.6 | 0.00 | 0.00 | 0.00 | 66 | 1013.4 |
| 20260503233211 | 54 | 269 | 0.9 | 1.7 | 0.00 | 0.00 | 0.00 | 66 | 1013.5 |
| 20260503233207 | 54 | 269 | 0.9 | 1.7 | 0.00 | 0.00 | 0.00 | 66 | 1013.5 |
| 20260503232951 | 55 | 269 | 0.9 | 2.6 | 0.00 | 0.00 | 0.00 | 66 | 1013.5 |
| 20260503232943 | 55 | 269 | 0.9 | 2.6 | 0.00 | 0.00 | 0.00 | 66 | 1013.4 |
| 20260503232939 | 55 | 269 | 0.9 | 2.6 | 0.00 | 0.00 | 0.00 | 66 | 1013.4 |
| 20260503232634 | 55 | 269 | 0.9 | 2.6 | 0.00 | 0.00 | 0.00 | 66 | 1013.4 |
| 20260503232534 | 55 | 269 | 0.9 | 2.6 | 0.00 | 0.00 | 0.00 | 66 | 1013.4 |
| 20260503232434 | 55 | 269 | 0.9 | 2.6 | 0.00 | 0.00 | 0.00 | 66 | 1013.4 |
| 20260503232332 | 55 | 269 | 0.9 | 2.6 | 0.00 | 0.00 | 0.00 | 66 | 1013.3 |
| 20260503232228 | 55 | 269 | 0.9 | 2.6 | 0.00 | 0.00 | 0.00 | 66 | 1013.3 |
| 20260503232133 | 55 | 269 | 0.9 | 2.6 | 0.00 | 0.00 | 0.00 | 66 | 1013.3 |
| 20260503232030 | 55 | 269 | 0.9 | 2.6 | 0.00 | 0.00 | 0.00 | 66 | 1013.3 |
| 20260503231953 | 55 | 269 | 0.9 | 2.6 | 0.00 | 0.00 | 0.00 | 66 | 1013.3 |
| 20260503231945 | 55 | 269 | 0.0 | 1.7 | 0.00 | 0.00 | 0.00 | 65 | 1013.3 |
| 20260503231941 | 55 | 269 | 0.0 | 1.7 | 0.00 | 0.00 | 0.00 | 65 | 1013.4 |
| 20260503231630 | 55 | 269 | 0.0 | 1.7 | 0.00 | 0.00 | 0.00 | 65 | 1013.4 |
| 20260503231528 | 55 | 269 | 0.0 | 0.9 | 0.00 | 0.00 | 0.00 | 65 | 1013.4 |
| 20260503231427 | 55 | 269 | 0.0 | 0.9 | 0.00 | 0.00 | 0.00 | 65 | 1013.3 |
| 20260503231326 | 55 | 269 | 0.0 | 0.9 | 0.00 | 0.00 | 0.00 | 65 | 1013.4 |
| 20260503231224 | 55 | 268 | 0.0 | 1.7 | 0.00 | 0.00 | 0.00 | 65 | 1013.3 |
| 20260503231215 | 55 | 268 | 0.9 | 1.7 | 0.00 | 0.00 | 0.00 | 65 | 1013.4 |
| 20260503231211 | 55 | 268 | 0.0 | 1.7 | 0.00 | 0.00 | 0.00 | 65 | 1013.4 |
| 20260503231207 | 55 | 268 | 0.9 | 1.7 | 0.00 | 0.00 | 0.00 | 66 | 1013.4 |
| 20260503230949 | 55 | 268 | 0.9 | 1.7 | 0.00 | 0.00 | 0.00 | 66 | 1013.4 |
| 20260503230941 | 55 | 268 | 0.9 | 1.7 | 0.00 | 0.00 | 0.00 | 65 | 1013.4 |
| 20260503230718 | 55 | 268 | 0.9 | 1.7 | 0.00 | 0.00 | 0.00 | 65 | 1013.4 |
| 20260503230618 | 55 | 268 | 0.9 | 1.7 | 0.00 | 0.00 | 0.00 | 65 | 1013.5 |
| 20260503230516 | 55 | 268 | 0.9 | 1.7 | 0.00 | 0.00 | 0.00 | 65 | 1013.5 |
| 20260503230413 | 56 | 268 | 0.9 | 1.7 | 0.00 | 0.00 | 0.00 | 65 | 1013.4 |
| 20260503230313 | 56 | 268 | 0.9 | 1.7 | 0.00 | 0.00 | 0.00 | 65 | 1013.4 |
| 20260503230212 | 56 | 268 | 0.9 | 1.7 | 0.00 | 0.00 | 0.00 | 65 | 1013.4 |
| 20260503230112 | 56 | 268 | 0.9 | 1.7 | 0.00 | 0.00 | 0.00 | 64 | 1013.4 |
| 20260503230012 | 56 | 268 | 0.9 | 1.7 | 0.00 | 0.00 | 0.00 | 64 | 1013.3 |
| 20260503225912 | 56 | 269 | 0.9 | 1.7 | 0.00 | 0.00 | 0.00 | 64 | 1013.3 |
| 20260503225812 | 56 | 269 | 0.9 | 1.7 | 0.00 | 0.00 | 0.00 | 65 | 1013.3 |
| 20260503225718 | 56 | 269 | 0.9 | 1.7 | 0.00 | 0.00 | 0.00 | 65 | 1013.1 |
| 20260503225712 | 56 | 269 | 0.9 | 1.7 | 0.00 | 0.00 | 0.00 | 64 | 1013.2 |
| 20260503225707 | 56 | 269 | 0.9 | 1.7 | 0.00 | 0.00 | 0.00 | 64 | 1013.2 |
| 20260503225704 | 56 | 269 | 0.9 | 1.7 | 0.00 | 0.00 | 0.00 | 65 | 1013.2 |
| 20260503225444 | 56 | 269 | 0.9 | 1.7 | 0.00 | 0.00 | 0.00 | 65 | 1013.2 |
| 20260503225436 | 56 | 269 | 0.9 | 1.7 | 0.00 | 0.00 | 0.00 | 65 | 1013.1 |
| 20260503225204 | 56 | 269 | 0.9 | 1.7 | 0.00 | 0.00 | 0.00 | 65 | 1013.1 |
| 20260503225102 | 56 | 268 | 0.9 | 1.7 | 0.00 | 0.00 | 0.00 | 65 | 1013.1 |
| 20260503225002 | 56 | 268 | 0.9 | 1.7 | 0.00 | 0.00 | 0.00 | 65 | 1013.2 |
| 20260503224953 | 56 | 268 | 0.9 | 1.7 | 0.00 | 0.00 | 0.00 | 65 | 1013.2 |
| 20260503224945 | 56 | 268 | 0.9 | 1.7 | 0.00 | 0.00 | 0.00 | 65 | 1013.2 |
| 20260503224937 | 56 | 268 | 0.9 | 1.7 | 0.00 | 0.00 | 0.00 | 65 | 1013.2 |
| 20260503224701 | 56 | 268 | 0.9 | 1.7 | 0.00 | 0.00 | 0.00 | 65 | 1013.2 |
| 20260503224601 | 56 | 268 | 0.9 | 1.7 | 0.00 | 0.00 | 0.00 | 65 | 1013.2 |
| 20260503224501 | 56 | 268 | 0.9 | 1.7 | 0.00 | 0.00 | 0.00 | 65 | 1013.3 |
| 20260503224401 | 56 | 268 | 0.9 | 1.7 | 0.00 | 0.00 | 0.00 | 65 | 1013.3 |
| 20260503224302 | 56 | 268 | 0.9 | 2.6 | 0.00 | 0.00 | 0.00 | 65 | 1013.3 |
| 20260503224201 | 57 | 268 | 0.9 | 2.6 | 0.00 | 0.00 | 0.00 | 64 | 1013.3 |
| 20260503224058 | 57 | 268 | 0.9 | 2.6 | 0.00 | 0.00 | 0.00 | 64 | 1013.3 |
| 20260503223958 | 57 | 268 | 0.9 | 2.6 | 0.00 | 0.00 | 0.00 | 64 | 1013.3 |
| 20260503223858 | 57 | 268 | 0.9 | 2.6 | 0.00 | 0.00 | 0.00 | 64 | 1013.3 |
| 20260503223758 | 57 | 268 | 0.9 | 2.6 | 0.00 | 0.00 | 0.00 | 64 | 1013.3 |
| 20260503223725 | 57 | 268 | 0.9 | 2.6 | 0.00 | 0.00 | 0.00 | 64 | 1013.3 |
| 20260503223656 | 57 | 268 | 0.9 | 2.6 | 0.00 | 0.00 | 0.00 | 64 | 1013.3 |
| 20260503223550 | 57 | 268 | 0.9 | 2.6 | 0.00 | 0.00 | 0.00 | 64 | 1013.3 |
| 20260503223450 | 57 | 268 | 0.9 | 2.6 | 0.00 | 0.00 | 0.00 | 64 | 1013.2 |
| 20260503223350 | 57 | 268 | 0.9 | 2.6 | 0.00 | 0.00 | 0.00 | 64 | 1013.2 |
| 20260503223226 | 57 | 267 | 0.9 | 2.6 | 0.00 | 0.00 | 0.00 | 64 | 1013.2 |
| 20260503223147 | 57 | 267 | 1.7 | 2.6 | 0.00 | 0.00 | 0.00 | 64 | 1013.3 |
| 20260503223044 | 57 | 267 | 1.7 | 2.6 | 0.00 | 0.00 | 0.00 | 65 | 1013.3 |
| 20260503222942 | 57 | 267 | 1.7 | 2.6 | 0.00 | 0.00 | 0.00 | 65 | 1013.3 |
| 20260503222842 | 57 | 267 | 1.7 | 2.6 | 0.00 | 0.00 | 0.00 | 64 | 1013.3 |
| 20260503222742 | 57 | 267 | 1.7 | 2.6 | 0.00 | 0.00 | 0.00 | 64 | 1013.2 |
| 20260503222725 | 57 | 268 | 1.7 | 2.6 | 0.00 | 0.00 | 0.00 | 64 | 1013.2 |
| 20260503222642 | 57 | 268 | 1.7 | 3.5 | 0.00 | 0.00 | 0.00 | 64 | 1013.2 |
| 20260503222535 | 57 | 268 | 1.7 | 3.5 | 0.00 | 0.00 | 0.00 | 64 | 1013.2 |
| 20260503222435 | 57 | 268 | 1.7 | 3.5 | 0.00 | 0.00 | 0.00 | 65 | 1013.2 |
| 20260503222335 | 57 | 277 | 1.7 | 3.5 | 0.00 | 0.00 | 0.00 | 65 | 1013.2 |
| 20260503222226 | 57 | 277 | 1.7 | 3.5 | 0.00 | 0.00 | 0.00 | 65 | 1013.2 |
| 20260503222136 | 57 | 277 | 1.7 | 3.5 | 0.00 | 0.00 | 0.00 | 65 | 1013.2 |
| 20260503222030 | 57 | 277 | 1.7 | 3.5 | 0.00 | 0.00 | 0.00 | 65 | 1013.2 |
| 20260503221930 | 57 | 277 | 1.7 | 3.5 | 0.00 | 0.00 | 0.00 | 65 | 1013.1 |
| 20260503221829 | 57 | 280 | 1.7 | 3.5 | 0.00 | 0.00 | 0.00 | 65 | 1013.2 |
| 20260503221726 | 57 | 280 | 1.7 | 3.5 | 0.00 | 0.00 | 0.00 | 64 | 1013.1 |
| 20260503221630 | 57 | 284 | 1.7 | 2.6 | 0.00 | 0.00 | 0.00 | 64 | 1013.1 |
| 20260503221530 | 57 | 284 | 1.7 | 2.6 | 0.00 | 0.00 | 0.00 | 64 | 1013.0 |
| 20260503221429 | 57 | 283 | 1.7 | 2.6 | 0.00 | 0.00 | 0.00 | 64 | 1013.0 |
| 20260503221330 | 58 | 297 | 1.7 | 2.6 | 0.00 | 0.00 | 0.00 | 64 | 1013.0 |
| 20260503221225 | 58 | 299 | 1.7 | 3.5 | 0.00 | 0.00 | 0.00 | 64 | 1013.0 |
| 20260503221129 | 58 | 299 | 1.7 | 3.5 | 0.00 | 0.00 | 0.00 | 64 | 1012.9 |
| 20260503221029 | 58 | 299 | 1.7 | 3.5 | 0.00 | 0.00 | 0.00 | 64 | 1012.9 |
| 20260503220929 | 58 | 299 | 1.7 | 3.5 | 0.00 | 0.00 | 0.00 | 64 | 1012.9 |
| 20260503220829 | 58 | 300 | 1.7 | 3.5 | 0.00 | 0.00 | 0.00 | 64 | 1012.9 |
| 20260503220724 | 58 | 300 | 1.7 | 3.5 | 0.00 | 0.00 | 0.00 | 64 | 1012.8 |
| 20260503220629 | 58 | 296 | 1.7 | 3.5 | 0.00 | 0.00 | 0.00 | 64 | 1012.9 |
| 20260503220528 | 58 | 296 | 1.7 | 3.5 | 0.00 | 0.00 | 0.00 | 64 | 1012.8 |
| 20260503220428 | 58 | 319 | 1.7 | 3.5 | 0.00 | 0.00 | 0.00 | 64 | 1012.8 |
| 20260503220328 | 58 | 319 | 1.7 | 3.5 | 0.00 | 0.00 | 0.00 | 64 | 1012.9 |
| 20260503220223 | 58 | 302 | 1.7 | 3.5 | 0.00 | 0.00 | 0.00 | 64 | 1012.8 |
| 20260503220128 | 58 | 302 | 1.7 | 3.5 | 0.00 | 0.00 | 0.00 | 64 | 1012.8 |
| 20260503220028 | 58 | 302 | 1.7 | 3.5 | 0.00 | 0.00 | 0.00 | 64 | 1012.8 |
| 20260503215928 | 58 | 302 | 0.9 | 2.6 | 0.00 | 0.00 | 0.00 | 64 | 1012.8 |
| 20260503215829 | 58 | 296 | 1.7 | 2.6 | 0.00 | 0.00 | 0.00 | 65 | 1012.8 |
| 20260503215722 | 58 | 295 | 1.7 | 2.6 | 0.00 | 0.00 | 0.00 | 65 | 1012.8 |
| 20260503215628 | 58 | 295 | 1.7 | 2.6 | 0.00 | 0.00 | 0.00 | 65 | 1012.8 |
| 20260503215528 | 58 | 295 | 0.9 | 2.6 | 0.00 | 0.00 | 0.00 | 65 | 1012.8 |
| 20260503215428 | 58 | 295 | 0.9 | 2.6 | 0.00 | 0.00 | 0.00 | 65 | 1012.8 |
| 20260503215328 | 58 | 295 | 0.9 | 2.6 | 0.00 | 0.00 | 0.00 | 65 | 1012.8 |
| 20260503215223 | 58 | 295 | 0.9 | 2.6 | 0.00 | 0.00 | 0.00 | 65 | 1012.8 |
| 20260503215129 | 58 | 295 | 0.9 | 2.6 | 0.00 | 0.00 | 0.00 | 65 | 1012.7 |
| 20260503215029 | 58 | 295 | 1.7 | 2.6 | 0.00 | 0.00 | 0.00 | 65 | 1012.7 |
| 20260503214929 | 58 | 295 | 1.7 | 2.6 | 0.00 | 0.00 | 0.00 | 65 | 1012.8 |
| 20260503214830 | 58 | 295 | 1.7 | 2.6 | 0.00 | 0.00 | 0.00 | 65 | 1012.7 |
| 20260503214722 | 58 | 295 | 1.7 | 2.6 | 0.00 | 0.00 | 0.00 | 65 | 1012.7 |
| 20260503214629 | 58 | 295 | 1.7 | 2.6 | 0.00 | 0.00 | 0.00 | 65 | 1012.8 |
| 20260503214529 | 59 | 295 | 1.7 | 2.6 | 0.00 | 0.00 | 0.00 | 65 | 1012.7 |
| 20260503214429 | 59 | 295 | 1.7 | 2.6 | 0.00 | 0.00 | 0.00 | 65 | 1012.7 |
| 20260503214329 | 59 | 295 | 1.7 | 2.6 | 0.00 | 0.00 | 0.00 | 65 | 1012.7 |
| 20260503214229 | 59 | 295 | 1.7 | 2.6 | 0.00 | 0.00 | 0.00 | 65 | 1012.7 |
| 20260503214222 | 59 | 294 | 1.7 | 2.6 | 0.00 | 0.00 | 0.00 | 65 | 1012.7 |
| 20260503214206 | 59 | 296 | 1.7 | 2.6 | 0.00 | 0.00 | 0.00 | 64 | 1012.8 |
| 20260503214202 | 59 | 294 | 1.7 | 2.6 | 0.00 | 0.00 | 0.00 | 65 | 1012.7 |
| 20260503214158 | 59 | 294 | 1.7 | 2.6 | 0.00 | 0.00 | 0.00 | 65 | 1012.7 |
| 20260503213941 | 59 | 294 | 1.7 | 2.6 | 0.00 | 0.00 | 0.00 | 65 | 1012.7 |
| 20260503213937 | 59 | 295 | 1.7 | 2.6 | 0.00 | 0.00 | 0.00 | 65 | 1012.7 |
| 20260503213928 | 59 | 296 | 1.7 | 2.6 | 0.00 | 0.00 | 0.00 | 64 | 1012.8 |
| 20260503213628 | 59 | 296 | 1.7 | 2.6 | 0.00 | 0.00 | 0.00 | 64 | 1012.7 |
| 20260503213529 | 59 | 296 | 1.7 | 3.5 | 0.00 | 0.00 | 0.00 | 64 | 1012.7 |
| 20260503213429 | 59 | 296 | 1.7 | 3.5 | 0.00 | 0.00 | 0.00 | 64 | 1012.7 |
| 20260503213329 | 59 | 296 | 1.7 | 3.5 | 0.00 | 0.00 | 0.00 | 64 | 1012.7 |
| 20260503213213 | 59 | 296 | 1.7 | 3.5 | 0.00 | 0.00 | 0.00 | 64 | 1012.7 |
| 20260503213129 | 59 | 296 | 1.7 | 3.5 | 0.00 | 0.00 | 0.00 | 64 | 1012.7 |
| 20260503213029 | 59 | 294 | 1.7 | 3.5 | 0.00 | 0.00 | 0.00 | 63 | 1012.7 |
| 20260503212943 | 60 | 292 | 2.6 | 6.1 | 0.00 | 0.00 | 0.00 | 63 | 1012.7 |
| 20260503212937 | 60 | 293 | 2.6 | 3.5 | 0.00 | 0.00 | 0.00 | 63 | 1012.7 |
| 20260503212933 | 60 | 293 | 2.6 | 6.1 | 0.00 | 0.00 | 0.00 | 63 | 1012.7 |
| 20260503212924 | 60 | 293 | 2.6 | 6.1 | 0.00 | 0.00 | 0.00 | 63 | 1012.7 |
| 20260503212627 | 60 | 292 | 2.6 | 6.1 | 0.00 | 0.00 | 0.00 | 63 | 1012.6 |
| 20260503212527 | 60 | 296 | 2.6 | 6.1 | 0.00 | 0.00 | 0.00 | 63 | 1012.6 |
| 20260503212424 | 60 | 288 | 2.6 | 6.1 | 0.00 | 0.00 | 0.00 | 63 | 1012.6 |
| 20260503212324 | 60 | 287 | 2.6 | 6.1 | 0.00 | 0.00 | 0.00 | 63 | 1012.6 |
| 20260503212213 | 60 | 289 | 2.6 | 6.1 | 0.00 | 0.00 | 0.00 | 63 | 1012.6 |
| 20260503212123 | 60 | 287 | 2.6 | 6.1 | 0.00 | 0.00 | 0.00 | 62 | 1012.6 |
| 20260503212023 | 60 | 286 | 3.5 | 6.1 | 0.00 | 0.00 | 0.00 | 62 | 1012.6 |
| 20260503211923 | 60 | 296 | 3.5 | 6.1 | 0.00 | 0.00 | 0.00 | 62 | 1012.6 |
| 20260503211823 | 60 | 279 | 3.5 | 6.1 | 0.00 | 0.00 | 0.00 | 62 | 1012.6 |
| 20260503211718 | 60 | 297 | 3.5 | 6.1 | 0.00 | 0.00 | 0.00 | 62 | 1012.6 |
| 20260503211711 | 60 | 298 | 3.5 | 6.1 | 0.00 | 0.00 | 0.00 | 62 | 1012.6 |
| 20260503211619 | 60 | 284 | 3.5 | 6.1 | 0.00 | 0.00 | 0.00 | 62 | 1012.6 |
| 20260503211519 | 60 | 269 | 3.5 | 7.0 | 0.00 | 0.00 | 0.00 | 62 | 1012.6 |
| 20260503211419 | 60 | 288 | 3.5 | 7.0 | 0.00 | 0.00 | 0.00 | 61 | 1012.6 |
| 20260503211318 | 60 | 290 | 3.5 | 7.0 | 0.00 | 0.00 | 0.00 | 61 | 1012.6 |
| 20260503211219 | 60 | 308 | 3.5 | 7.0 | 0.00 | 0.00 | 0.00 | 61 | 1012.6 |
| 20260503211211 | 60 | 311 | 3.5 | 7.0 | 0.00 | 0.00 | 0.00 | 61 | 1012.6 |
| 20260503211119 | 60 | 268 | 2.6 | 7.0 | 0.00 | 0.00 | 0.00 | 61 | 1012.5 |
| 20260503211019 | 60 | 298 | 2.6 | 7.0 | 0.00 | 0.00 | 0.00 | 60 | 1012.5 |
| 20260503210919 | 60 | 306 | 2.6 | 7.0 | 0.00 | 0.00 | 0.00 | 60 | 1012.6 |
| 20260503210818 | 60 | 263 | 2.6 | 7.8 | 0.00 | 0.00 | 0.00 | 60 | 1012.4 |
| 20260503210718 | 60 | 289 | 2.6 | 7.8 | 0.00 | 0.00 | 0.00 | 60 | 1012.5 |
| 20260503210710 | 60 | 288 | 2.6 | 7.8 | 0.00 | 0.00 | 0.00 | 60 | 1012.5 |
| 20260503210618 | 60 | 310 | 2.6 | 7.8 | 0.00 | 0.00 | 0.00 | 60 | 1012.4 |
| 20260503210518 | 60 | 305 | 2.6 | 7.8 | 0.00 | 0.00 | 0.00 | 60 | 1012.4 |
| 20260503210438 | 60 | 296 | 2.6 | 7.8 | 0.00 | 0.00 | 0.00 | 59 | 1012.4 |
| 20260503210433 | 60 | 298 | 2.6 | 7.8 | 0.00 | 0.00 | 0.00 | 60 | 1012.4 |
| 20260503210429 | 60 | 303 | 2.6 | 7.8 | 0.00 | 0.00 | 0.00 | 59 | 1012.4 |
| 20260503210421 | 60 | 295 | 2.6 | 7.8 | 0.00 | 0.00 | 0.00 | 59 | 1012.4 |
| 20260503210118 | 60 | 282 | 2.6 | 7.8 | 0.00 | 0.00 | 0.00 | 59 | 1012.4 |
| 20260503210019 | 60 | 301 | 2.6 | 7.8 | 0.00 | 0.00 | 0.00 | 59 | 1012.3 |
| 20260503205919 | 60 | 280 | 2.6 | 7.8 | 0.00 | 0.00 | 0.00 | 59 | 1012.3 |
| 20260503205815 | 60 | 281 | 2.6 | 5.2 | 0.00 | 0.00 | 0.00 | 58 | 1012.4 |
| 20260503205715 | 60 | 294 | 2.6 | 5.2 | 0.00 | 0.00 | 0.00 | 58 | 1012.3 |
| 20260503205711 | 60 | 293 | 2.6 | 5.2 | 0.00 | 0.00 | 0.00 | 58 | 1012.3 |
| 20260503205615 | 60 | 291 | 1.7 | 5.2 | 0.00 | 0.00 | 0.00 | 58 | 1012.3 |
| 20260503205515 | 60 | 308 | 1.7 | 5.2 | 0.00 | 0.00 | 0.00 | 57 | 1012.3 |
| 20260503205415 | 60 | 290 | 1.7 | 5.2 | 0.00 | 0.00 | 0.00 | 57 | 1012.3 |
| 20260503205314 | 60 | 284 | 1.7 | 5.2 | 0.00 | 0.00 | 0.00 | 57 | 1012.1 |
| 20260503205210 | 61 | 284 | 1.7 | 5.2 | 0.00 | 0.00 | 0.00 | 57 | 1012.1 |
| 20260503205114 | 61 | 284 | 1.7 | 5.2 | 0.00 | 0.00 | 0.00 | 56 | 1012.3 |
| 20260503205014 | 61 | 254 | 1.7 | 5.2 | 0.00 | 0.00 | 0.00 | 56 | 1012.1 |
| 20260503204915 | 61 | 265 | 0.9 | 5.2 | 0.00 | 0.00 | 0.00 | 56 | 1012.3 |
| 20260503204815 | 61 | 300 | 0.9 | 2.6 | 0.00 | 0.00 | 0.00 | 55 | 1012.1 |
| 20260503204710 | 61 | 300 | 0.9 | 2.6 | 0.00 | 0.00 | 0.00 | 55 | 1012.1 |
| 20260503204615 | 61 | 300 | 0.9 | 1.7 | 0.00 | 0.00 | 0.00 | 55 | 1012.1 |
| 20260503204514 | 61 | 300 | 0.9 | 1.7 | 0.00 | 0.00 | 0.00 | 55 | 1012.1 |
| 20260503204414 | 61 | 300 | 0.9 | 1.7 | 0.00 | 0.00 | 0.00 | 55 | 1012.1 |
| 20260503204314 | 61 | 300 | 0.9 | 2.6 | 0.00 | 0.00 | 0.00 | 55 | 1012.1 |
| 20260503204207 | 61 | 300 | 0.9 | 3.5 | 0.00 | 0.00 | 0.00 | 55 | 1012.1 |
| 20260503204114 | 61 | 300 | 0.9 | 3.5 | 0.00 | 0.00 | 0.00 | 54 | 1012.1 |
| 20260503204014 | 61 | 300 | 0.9 | 3.5 | 0.00 | 0.00 | 0.00 | 55 | 1012.1 |
| 20260503203911 | 62 | 300 | 0.9 | 3.5 | 0.00 | 0.00 | 0.00 | 55 | 1012.0 |
| 20260503203811 | 62 | 300 | 0.9 | 3.5 | 0.00 | 0.00 | 0.00 | 54 | 1012.0 |
| 20260503203706 | 62 | 300 | 1.7 | 3.5 | 0.00 | 0.00 | 0.00 | 54 | 1012.0 |
| 20260503203610 | 62 | 300 | 1.7 | 3.5 | 0.00 | 0.00 | 0.00 | 54 | 1012.0 |
| 20260503203510 | 62 | 300 | 1.7 | 3.5 | 0.00 | 0.00 | 0.00 | 54 | 1011.9 |
| 20260503203432 | 62 | 300 | 1.7 | 3.5 | 0.00 | 0.00 | 0.00 | 54 | 1011.9 |
| 20260503203428 | 62 | 300 | 1.7 | 3.5 | 0.00 | 0.00 | 0.00 | 54 | 1011.8 |
| 20260503203419 | 62 | 310 | 1.7 | 3.5 | 0.00 | 0.00 | 0.00 | 54 | 1011.9 |
| 20260503203116 | 62 | 310 | 1.7 | 3.5 | 0.00 | 0.00 | 0.00 | 53 | 1011.8 |
| 20260503203011 | 62 | 310 | 1.7 | 3.5 | 0.00 | 0.00 | 0.00 | 53 | 1011.9 |
| 20260503202935 | 62 | 240 | 1.7 | 2.6 | 0.00 | 0.00 | 0.00 | 53 | 1011.8 |
| 20260503202931 | 62 | 310 | 1.7 | 2.6 | 0.00 | 0.00 | 0.00 | 53 | 1011.8 |
| 20260503202927 | 62 | 281 | 1.7 | 2.6 | 0.00 | 0.00 | 0.00 | 53 | 1011.8 |
| 20260503202610 | 62 | 240 | 1.7 | 3.5 | 0.00 | 0.00 | 0.00 | 53 | 1011.8 |
| 20260503202510 | 62 | 240 | 1.7 | 3.5 | 0.00 | 0.00 | 0.00 | 52 | 1011.8 |
| 20260503202410 | 62 | 240 | 1.7 | 3.5 | 0.00 | 0.00 | 0.00 | 52 | 1011.8 |
| 20260503202310 | 62 | 240 | 1.7 | 3.5 | 0.00 | 0.00 | 0.00 | 52 | 1011.8 |
| 20260503202206 | 63 | 240 | 1.7 | 4.3 | 0.00 | 0.00 | 0.00 | 52 | 1011.8 |
| 20260503202110 | 63 | 241 | 1.7 | 4.3 | 0.00 | 0.00 | 0.00 | 52 | 1011.8 |
| 20260503202007 | 63 | 241 | 1.7 | 4.3 | 0.00 | 0.00 | 0.00 | 52 | 1011.8 |
| 20260503201907 | 63 | 240 | 1.7 | 4.3 | 0.00 | 0.00 | 0.00 | 52 | 1011.7 |
| 20260503201807 | 63 | 240 | 0.9 | 4.3 | 0.00 | 0.00 | 0.00 | 51 | 1011.7 |
| 20260503201706 | 63 | 240 | 0.9 | 4.3 | 0.00 | 0.00 | 0.00 | 51 | 1011.8 |
| 20260503201606 | 63 | 240 | 0.9 | 4.3 | 0.00 | 0.00 | 0.00 | 52 | 1011.7 |
| 20260503201507 | 63 | 238 | 0.9 | 4.3 | 0.00 | 0.00 | 0.00 | 50 | 1011.7 |
| 20260503201407 | 63 | 238 | 0.9 | 4.3 | 0.00 | 0.00 | 0.00 | 50 | 1011.7 |
| 20260503201307 | 63 | 238 | 0.9 | 4.3 | 0.00 | 0.00 | 0.00 | 50 | 1011.7 |
| 20260503201206 | 63 | 269 | 1.7 | 7.0 | 0.00 | 0.00 | 0.00 | 50 | 1011.7 |
| 20260503201106 | 63 | 269 | 1.7 | 7.0 | 0.00 | 0.00 | 0.00 | 50 | 1011.6 |
| 20260503201006 | 63 | 269 | 2.6 | 7.0 | 0.00 | 0.00 | 0.00 | 50 | 1011.6 |
| 20260503200906 | 63 | 269 | 2.6 | 7.8 | 0.00 | 0.00 | 0.00 | 50 | 1011.6 |
| 20260503200806 | 63 | 269 | 3.5 | 7.8 | 0.00 | 0.00 | 0.00 | 50 | 1011.6 |
| 20260503200707 | 63 | 269 | 3.5 | 7.8 | 0.00 | 0.00 | 0.00 | 49 | 1011.6 |
| 20260503200612 | 63 | 269 | 3.5 | 7.8 | 0.00 | 0.00 | 0.00 | 49 | 1011.5 |
| 20260503200507 | 63 | 276 | 4.3 | 7.8 | 0.00 | 0.00 | 0.00 | 49 | 1011.5 |
| 20260503200406 | 63 | 265 | 4.3 | 7.8 | 0.00 | 0.00 | 0.00 | 49 | 1011.5 |
| 20260503200306 | 63 | 269 | 4.3 | 7.8 | 0.00 | 0.00 | 0.00 | 49 | 1011.5 |
| 20260503200206 | 63 | 266 | 4.3 | 7.8 | 0.00 | 0.00 | 0.00 | 50 | 1011.5 |
| 20260503200002 | 63 | 248 | 4.3 | 7.8 | 0.00 | 0.00 | 0.00 | 50 | 1011.5 |
| 20260503195902 | 63 | 272 | 3.5 | 7.8 | 0.00 | 0.00 | 0.00 | 50 | 1011.5 |
| 20260503195802 | 63 | 251 | 3.5 | 7.8 | 0.00 | 0.00 | 0.00 | 49 | 1011.4 |
| 20260503195702 | 63 | 211 | 3.5 | 7.8 | 0.00 | 0.00 | 0.00 | 49 | 1011.4 |
| 20260503195603 | 63 | 262 | 3.5 | 7.8 | 0.00 | 0.00 | 0.00 | 49 | 1011.4 |
| 20260503195502 | 63 | 293 | 2.6 | 7.0 | 0.00 | 0.00 | 0.00 | 49 | 1011.4 |
| 20260503195403 | 63 | 236 | 2.6 | 6.1 | 0.00 | 0.00 | 0.00 | 49 | 1011.5 |
| 20260503195304 | 63 | 263 | 2.6 | 6.1 | 0.00 | 0.00 | 0.00 | 49 | 1011.4 |
| 20260503195202 | 63 | 265 | 2.6 | 6.1 | 0.00 | 0.00 | 0.00 | 50 | 1011.4 |
| 20260503195101 | 63 | 259 | 2.6 | 6.1 | 0.00 | 0.00 | 0.00 | 50 | 1011.4 |
| 20260503195002 | 63 | 284 | 2.6 | 6.1 | 0.00 | 0.00 | 0.00 | 50 | 1011.4 |
| 20260503194900 | 63 | 286 | 2.6 | 6.1 | 0.00 | 0.00 | 0.00 | 50 | 1011.3 |
| 20260503194800 | 63 | 257 | 2.6 | 6.1 | 0.00 | 0.00 | 0.00 | 50 | 1011.3 |
| 20260503194705 | 63 | 248 | 2.6 | 6.1 | 0.00 | 0.00 | 0.00 | 49 | 1011.3 |
| 20260503194701 | 63 | 248 | 2.6 | 6.1 | 0.00 | 0.00 | 0.00 | 49 | 1011.3 |
| 20260503194601 | 63 | 249 | 3.5 | 6.1 | 0.00 | 0.00 | 0.00 | 49 | 1011.3 |
| 20260503194459 | 63 | 262 | 2.6 | 6.1 | 0.00 | 0.00 | 0.00 | 48 | 1011.3 |
| 20260503194354 | 63 | 252 | 2.6 | 6.1 | 0.00 | 0.00 | 0.00 | 49 | 1011.3 |
| 20260503194252 | 63 | 246 | 2.6 | 6.1 | 0.00 | 0.00 | 0.00 | 50 | 1011.2 |
| 20260503194200 | 63 | 261 | 2.6 | 6.1 | 0.00 | 0.00 | 0.00 | 50 | 1011.2 |
| 20260503194152 | 63 | 261 | 2.6 | 6.1 | 0.00 | 0.00 | 0.00 | 50 | 1011.2 |
| 20260503194053 | 63 | 304 | 2.6 | 6.1 | 0.00 | 0.00 | 0.00 | 49 | 1011.2 |
| 20260503193952 | 63 | 277 | 2.6 | 6.1 | 0.00 | 0.00 | 0.00 | 49 | 1011.3 |
| 20260503193848 | 63 | 254 | 2.6 | 6.1 | 0.00 | 0.00 | 0.00 | 50 | 1011.3 |
| 20260503193748 | 63 | 277 | 1.7 | 6.1 | 0.00 | 0.00 | 0.00 | 50 | 1011.2 |
| 20260503193706 | 63 | 277 | 1.7 | 5.2 | 0.00 | 0.00 | 0.00 | 51 | 1011.2 |
| 20260503193648 | 63 | 288 | 1.7 | 4.3 | 0.00 | 0.00 | 0.00 | 51 | 1011.3 |
| 20260503193548 | 63 | 277 | 1.7 | 4.3 | 0.00 | 0.00 | 0.00 | 50 | 1011.3 |
| 20260503193445 | 63 | 270 | 1.7 | 3.5 | 0.00 | 0.00 | 0.00 | 52 | 1011.2 |
| 20260503193340 | 63 | 273 | 1.7 | 2.6 | 0.00 | 0.00 | 0.00 | 53 | 1011.2 |
| 20260503193240 | 63 | 270 | 0.9 | 2.6 | 0.00 | 0.00 | 0.00 | 52 | 1011.2 |
| 20260503193206 | 64 | 257 | 0.9 | 2.6 | 0.00 | 0.00 | 0.00 | 52 | 1011.2 |
| 20260503193140 | 64 | 257 | 0.9 | 2.6 | 0.00 | 0.00 | 0.00 | 52 | 1011.2 |
| 20260503193041 | 64 | 264 | 0.9 | 2.6 | 0.00 | 0.00 | 0.00 | 53 | 1011.2 |
| 20260503192940 | 64 | 281 | 0.9 | 2.6 | 0.00 | 0.00 | 0.00 | 54 | 1011.2 |
| 20260503192838 | 64 | 281 | 0.9 | 2.6 | 0.00 | 0.00 | 0.00 | 55 | 1011.1 |
| 20260503192738 | 64 | 281 | 0.9 | 2.6 | 0.00 | 0.00 | 0.00 | 53 | 1011.1 |
| 20260503192703 | 64 | 282 | 0.9 | 2.6 | 0.00 | 0.00 | 0.00 | 54 | 1011.1 |
| 20260503192639 | 64 | 285 | 0.9 | 2.6 | 0.00 | 0.00 | 0.00 | 54 | 1011.1 |
| 20260503192536 | 64 | 285 | 0.9 | 2.6 | 0.00 | 0.00 | 0.00 | 53 | 1011.1 |
| 20260503192433 | 64 | 285 | 0.9 | 2.6 | 0.00 | 0.00 | 0.00 | 53 | 1011.0 |
| 20260503192329 | 64 | 285 | 0.9 | 2.6 | 0.00 | 0.00 | 0.00 | 53 | 1011.0 |
| 20260503192203 | 64 | 285 | 0.9 | 2.6 | 0.00 | 0.00 | 0.00 | 53 | 1011.0 |
| 20260503192130 | 64 | 285 | 0.9 | 2.6 | 0.00 | 0.00 | 0.00 | 53 | 1010.9 |
| 20260503192030 | 64 | 285 | 0.9 | 2.6 | 0.00 | 0.00 | 0.00 | 54 | 1010.9 |
| 20260503191927 | 64 | 285 | 0.9 | 2.6 | 0.00 | 0.00 | 0.00 | 54 | 1010.9 |
| 20260503191828 | 65 | 285 | 0.9 | 2.6 | 0.00 | 0.00 | 0.00 | 55 | 1010.8 |
| 20260503191702 | 65 | 288 | 0.9 | 2.6 | 0.00 | 0.00 | 0.00 | 55 | 1010.8 |
| 20260503191626 | 65 | 288 | 0.9 | 2.6 | 0.00 | 0.00 | 0.00 | 55 | 1010.8 |
| 20260503191524 | 65 | 288 | 0.0 | 2.6 | 0.00 | 0.00 | 0.00 | 56 | 1010.7 |
| 20260503191422 | 65 | 288 | 0.0 | 1.7 | 0.00 | 0.00 | 0.00 | 55 | 1010.7 |
| 20260503191321 | 65 | 288 | 0.0 | 1.7 | 0.00 | 0.00 | 0.00 | 54 | 1010.7 |
| 20260503191201 | 65 | 288 | 0.0 | 0.9 | 0.00 | 0.00 | 0.00 | 53 | 1010.7 |
| 20260503191121 | 65 | 288 | 0.0 | 0.0 | 0.00 | 0.00 | 0.00 | 53 | 1010.7 |
| 20260503191017 | 65 | 288 | 0.0 | 0.0 | 0.00 | 0.00 | 0.00 | 53 | 1010.7 |
| 20260503190915 | 65 | 288 | 0.0 | 0.0 | 0.00 | 0.00 | 0.00 | 53 | 1010.6 |
| 20260503190814 | 66 | 288 | 0.0 | 0.9 | 0.00 | 0.00 | 0.00 | 53 | 1010.6 |
| 20260503190701 | 66 | 288 | 0.0 | 0.9 | 0.00 | 0.00 | 0.00 | 52 | 1010.6 |
| 20260503190614 | 66 | 288 | 0.0 | 0.9 | 0.00 | 0.00 | 0.00 | 52 | 1010.6 |
| 20260503190512 | 66 | 288 | 0.0 | 0.9 | 0.00 | 0.00 | 0.00 | 51 | 1010.6 |
| 20260503190409 | 66 | 288 | 0.0 | 0.9 | 0.00 | 0.00 | 0.00 | 52 | 1010.6 |
| 20260503190310 | 66 | 288 | 0.0 | 0.9 | 0.00 | 0.00 | 0.00 | 52 | 1010.6 |
| 20260503190201 | 66 | 288 | 0.0 | 0.9 | 0.00 | 0.00 | 0.00 | 51 | 1010.6 |
| 20260503190108 | 66 | 288 | 0.0 | 1.7 | 0.00 | 0.00 | 0.00 | 51 | 1010.6 |
| 20260503190006 | 67 | 288 | 0.0 | 1.7 | 0.00 | 0.00 | 0.00 | 51 | 1010.6 |
| 20260503185906 | 67 | 288 | 0.0 | 1.7 | 0.00 | 0.00 | 0.00 | 51 | 1010.6 |
| 20260503185806 | 67 | 288 | 0.0 | 1.7 | 0.00 | 0.00 | 0.00 | 50 | 1010.5 |
| 20260503185701 | 67 | 288 | 0.0 | 1.7 | 0.00 | 0.00 | 0.00 | 52 | 1010.5 |
| 20260503185607 | 67 | 288 | 0.0 | 1.7 | 0.00 | 0.00 | 0.00 | 51 | 1010.5 |
| 20260503185504 | 67 | 288 | 0.0 | 1.7 | 0.00 | 0.00 | 0.00 | 50 | 1010.5 |
| 20260503185404 | 67 | 288 | 0.0 | 1.7 | 0.00 | 0.00 | 0.00 | 50 | 1010.5 |
| 20260503185301 | 67 | 288 | 0.0 | 1.7 | 0.00 | 0.00 | 0.00 | 49 | 1010.5 |
| 20260503185201 | 67 | 288 | 0.0 | 1.7 | 0.00 | 0.00 | 0.00 | 50 | 1010.5 |
| 20260503185101 | 67 | 288 | 0.0 | 0.9 | 0.00 | 0.00 | 0.00 | 50 | 1010.5 |
| 20260503185001 | 68 | 288 | 0.0 | 0.9 | 0.00 | 0.00 | 0.00 | 49 | 1010.5 |
| 20260503184901 | 68 | 288 | 0.0 | 0.9 | 0.00 | 0.00 | 0.00 | 49 | 1010.5 |
| 20260503184801 | 68 | 288 | 0.0 | 0.9 | 0.00 | 0.00 | 0.00 | 50 | 1010.5 |
| 20260503184701 | 68 | 288 | 0.0 | 2.6 | 0.00 | 0.00 | 0.00 | 50 | 1010.5 |
| 20260503184601 | 68 | 288 | 0.0 | 2.6 | 0.00 | 0.00 | 0.00 | 48 | 1010.5 |
| 20260503184501 | 68 | 288 | 0.0 | 2.6 | 0.00 | 0.00 | 0.00 | 48 | 1010.5 |
| 20260503184401 | 68 | 288 | 0.9 | 2.6 | 0.00 | 0.00 | 0.00 | 48 | 1010.5 |
| 20260503184301 | 68 | 288 | 0.9 | 3.5 | 0.00 | 0.00 | 0.00 | 48 | 1010.5 |
| 20260503184201 | 68 | 288 | 0.9 | 3.5 | 0.00 | 0.00 | 0.00 | 48 | 1010.5 |
| 20260503184101 | 68 | 288 | 0.9 | 3.5 | 0.00 | 0.00 | 0.00 | 48 | 1010.5 |
| 20260503184001 | 69 | 288 | 0.9 | 3.5 | 0.00 | 0.00 | 0.00 | 48 | 1010.5 |
| 20260503183919 | 69 | 288 | 0.9 | 3.5 | 0.00 | 0.00 | 0.00 | 47 | 1010.5 |
| 20260503183915 | 69 | 288 | 0.9 | 3.5 | 0.00 | 0.00 | 0.00 | 46 | 1010.5 |
| 20260503183911 | 69 | 288 | 0.9 | 3.5 | 0.00 | 0.00 | 0.00 | 46 | 1010.5 |
| 20260503183601 | 69 | 288 | 0.9 | 3.5 | 0.00 | 0.00 | 0.00 | 46 | 1010.5 |
| 20260503183501 | 69 | 288 | 0.9 | 3.5 | 0.00 | 0.00 | 0.00 | 47 | 1010.5 |
| 20260503183400 | 69 | 288 | 0.9 | 3.5 | 0.00 | 0.00 | 0.00 | 47 | 1010.5 |
| 20260503183300 | 69 | 268 | 0.9 | 2.6 | 0.00 | 0.00 | 0.00 | 47 | 1010.5 |
| 20260503183201 | 69 | 268 | 0.9 | 2.6 | 0.00 | 0.00 | 0.00 | 47 | 1010.5 |
| 20260503183100 | 70 | 268 | 0.9 | 2.6 | 0.00 | 0.00 | 0.00 | 47 | 1010.5 |
| 20260503183000 | 70 | 267 | 0.0 | 1.7 | 0.00 | 0.00 | 0.00 | 48 | 1010.4 |
| 20260503182901 | 70 | 267 | 0.0 | 1.7 | 0.00 | 0.00 | 0.00 | 48 | 1010.4 |
| 20260503182800 | 70 | 267 | 0.0 | 1.7 | 0.00 | 0.00 | 0.00 | 48 | 1010.4 |
| 20260503182701 | 70 | 267 | 0.0 | 1.7 | 0.00 | 0.00 | 0.00 | 47 | 1010.4 |
| 20260503182601 | 70 | 267 | 0.0 | 0.9 | 0.00 | 0.00 | 0.00 | 46 | 1010.4 |
| 20260503182501 | 70 | 267 | 0.0 | 0.9 | 0.00 | 0.00 | 0.00 | 45 | 1010.2 |
| 20260503182358 | 70 | 267 | 0.0 | 0.9 | 0.00 | 0.00 | 0.00 | 45 | 1010.2 |
| 20260503182259 | 71 | 267 | 0.0 | 0.9 | 0.00 | 0.00 | 0.00 | 44 | 1010.2 |
| 20260503182202 | 71 | 267 | 0.0 | 0.9 | 0.00 | 0.00 | 0.00 | 44 | 1010.2 |
| 20260503182158 | 71 | 267 | 0.0 | 0.9 | 0.00 | 0.00 | 0.00 | 44 | 1010.2 |
| 20260503182058 | 71 | 267 | 0.0 | 1.7 | 0.00 | 0.00 | 0.00 | 44 | 1010.2 |
| 20260503181957 | 71 | 267 | 0.0 | 1.7 | 0.00 | 0.00 | 0.00 | 45 | 1010.2 |
| 20260503181852 | 71 | 267 | 0.0 | 1.7 | 0.00 | 0.00 | 0.00 | 46 | 1010.2 |
| 20260503181752 | 71 | 267 | 0.9 | 1.7 | 0.00 | 0.00 | 0.00 | 46 | 1010.2 |
| 20260503181702 | 71 | 267 | 0.9 | 1.7 | 0.00 | 0.00 | 0.00 | 46 | 1010.2 |
| 20260503181652 | 71 | 267 | 0.9 | 1.7 | 0.00 | 0.00 | 0.00 | 46 | 1010.2 |
| 20260503181552 | 71 | 267 | 0.9 | 1.7 | 0.00 | 0.00 | 0.00 | 46 | 1010.2 |
| 20260503181451 | 71 | 267 | 0.9 | 1.7 | 0.00 | 0.00 | 0.00 | 44 | 1010.2 |
| 20260503181350 | 71 | 267 | 0.9 | 1.7 | 0.00 | 0.00 | 0.00 | 44 | 1010.2 |
| 20260503181248 | 71 | 267 | 0.9 | 1.7 | 0.00 | 0.00 | 0.00 | 44 | 1010.2 |
| 20260503181201 | 71 | 267 | 0.9 | 1.7 | 0.00 | 0.00 | 0.00 | 44 | 1010.2 |
| 20260503181148 | 71 | 267 | 0.0 | 1.7 | 0.00 | 0.00 | 0.00 | 45 | 1010.2 |
| 20260503181048 | 71 | 267 | 0.0 | 1.7 | 0.00 | 0.00 | 0.00 | 45 | 1010.2 |
| 20260503180946 | 71 | 267 | 0.0 | 1.7 | 0.00 | 0.00 | 0.00 | 45 | 1010.2 |
| 20260503180843 | 72 | 267 | 0.0 | 1.7 | 0.00 | 0.00 | 0.00 | 45 | 1010.2 |
| 20260503180740 | 72 | 267 | 0.0 | 1.7 | 0.00 | 0.00 | 0.00 | 45 | 1010.2 |
| 20260503180701 | 72 | 267 | 0.0 | 1.7 | 0.00 | 0.00 | 0.00 | 45 | 1010.2 |
| 20260503180640 | 72 | 267 | 0.0 | 0.0 | 0.00 | 0.00 | 0.00 | 45 | 1010.2 |
| 20260503180540 | 72 | 267 | 0.0 | 0.0 | 0.00 | 0.00 | 0.00 | 45 | 1010.2 |
| 20260503180439 | 72 | 267 | 0.0 | 0.0 | 0.00 | 0.00 | 0.00 | 43 | 1010.2 |
| 20260503180416 | 72 | 267 | 0.0 | 0.0 | 0.00 | 0.00 | 0.00 | 43 | 1010.1 |
| 20260503180411 | 72 | 267 | 0.0 | 0.0 | 0.00 | 0.00 | 0.00 | 43 | 1010.2 |
| 20260503180138 | 72 | 267 | 0.0 | 0.0 | 0.00 | 0.00 | 0.00 | 42 | 1010.2 |
| 20260503180036 | 72 | 267 | 0.0 | 0.0 | 0.00 | 0.00 | 0.00 | 43 | 1010.1 |
| 20260503175933 | 72 | 267 | 0.0 | 0.0 | 0.00 | 0.00 | 0.00 | 43 | 1010.1 |
| 20260503175832 | 72 | 267 | 0.0 | 0.0 | 0.00 | 0.00 | 0.00 | 43 | 1010.1 |
| 20260503175732 | 73 | 267 | 0.0 | 0.0 | 0.00 | 0.00 | 0.00 | 42 | 1010.2 |
| 20260503175701 | 73 | 267 | 0.0 | 0.0 | 0.00 | 0.00 | 0.00 | 42 | 1010.2 |
| 20260503175632 | 73 | 267 | 0.0 | 0.9 | 0.00 | 0.00 | 0.00 | 42 | 1010.2 |
| 20260503175529 | 73 | 267 | 0.0 | 0.9 | 0.00 | 0.00 | 0.00 | 42 | 1010.1 |
| 20260503175427 | 73 | 267 | 0.0 | 0.9 | 0.00 | 0.00 | 0.00 | 41 | 1010.2 |
| 20260503175324 | 73 | 267 | 0.0 | 0.9 | 0.00 | 0.00 | 0.00 | 41 | 1010.1 |
| 20260503175202 | 73 | 267 | 0.0 | 0.9 | 0.00 | 0.00 | 0.00 | 41 | 1010.1 |
| 20260503175122 | 73 | 267 | 0.0 | 0.9 | 0.00 | 0.00 | 0.00 | 41 | 1010.1 |
| 20260503175022 | 73 | 267 | 0.0 | 0.9 | 0.00 | 0.00 | 0.00 | 41 | 1010.1 |
| 20260503174922 | 73 | 267 | 0.0 | 0.9 | 0.00 | 0.00 | 0.00 | 41 | 1010.1 |
| 20260503174822 | 73 | 267 | 0.0 | 0.9 | 0.00 | 0.00 | 0.00 | 40 | 1010.1 |
| 20260503174701 | 73 | 267 | 0.0 | 1.7 | 0.00 | 0.00 | 0.00 | 40 | 1010.1 |
| 20260503174620 | 73 | 267 | 0.0 | 1.7 | 0.00 | 0.00 | 0.00 | 40 | 1010.1 |
| 20260503174518 | 73 | 267 | 0.9 | 1.7 | 0.00 | 0.00 | 0.00 | 40 | 1010.1 |
| 20260503174415 | 73 | 267 | 0.9 | 1.7 | 0.00 | 0.00 | 0.00 | 40 | 1010.1 |
| 20260503174314 | 73 | 267 | 0.9 | 1.7 | 0.00 | 0.00 | 0.00 | 40 | 1010.1 |
| 20260503174201 | 73 | 267 | 0.9 | 1.7 | 0.00 | 0.00 | 0.00 | 39 | 1010.2 |
| 20260503174114 | 73 | 267 | 0.9 | 1.7 | 0.00 | 0.00 | 0.00 | 39 | 1010.1 |
| 20260503174014 | 73 | 267 | 0.9 | 1.7 | 0.00 | 0.00 | 0.00 | 39 | 1010.1 |
| 20260503173914 | 73 | 267 | 0.9 | 1.7 | 0.00 | 0.00 | 0.00 | 38 | 1010.1 |
| 20260503173814 | 73 | 267 | 0.9 | 1.7 | 0.00 | 0.00 | 0.00 | 38 | 1010.1 |
| 20260503173701 | 73 | 267 | 0.9 | 1.7 | 0.00 | 0.00 | 0.00 | 38 | 1010.1 |
| 20260503173613 | 74 | 267 | 0.9 | 1.7 | 0.00 | 0.00 | 0.00 | 37 | 1010.1 |
| 20260503173509 | 74 | 267 | 0.9 | 1.7 | 0.00 | 0.00 | 0.00 | 37 | 1010.1 |
| 20260503173410 | 74 | 267 | 0.9 | 1.7 | 0.00 | 0.00 | 0.00 | 37 | 1010.1 |
| 20260503173310 | 74 | 267 | 0.9 | 1.7 | 0.00 | 0.00 | 0.00 | 37 | 1010.2 |
| 20260503173201 | 74 | 267 | 0.9 | 1.7 | 0.00 | 0.00 | 0.00 | 37 | 1010.1 |
| 20260503173111 | 74 | 267 | 0.9 | 1.7 | 0.00 | 0.00 | 0.00 | 36 | 1010.1 |
| 20260503173008 | 74 | 267 | 0.9 | 1.7 | 0.00 | 0.00 | 0.00 | 36 | 1010.2 |
| 20260503172908 | 74 | 267 | 0.9 | 2.6 | 0.00 | 0.00 | 0.00 | 35 | 1010.1 |
| 20260503172806 | 74 | 267 | 0.9 | 2.6 | 0.00 | 0.00 | 0.00 | 36 | 1010.1 |
| 20260503172701 | 74 | 267 | 0.9 | 2.6 | 0.00 | 0.00 | 0.00 | 36 | 1010.1 |
| 20260503172608 | 74 | 267 | 0.9 | 2.6 | 0.00 | 0.00 | 0.00 | 35 | 1010.1 |
| 20260503172502 | 74 | 267 | 0.9 | 2.6 | 0.00 | 0.00 | 0.00 | 35 | 1010.2 |
| 20260503172402 | 74 | 267 | 0.9 | 2.6 | 0.00 | 0.00 | 0.00 | 34 | 1010.1 |
| 20260503172302 | 74 | 267 | 0.9 | 2.6 | 0.00 | 0.00 | 0.00 | 34 | 1010.1 |
| 20260503172202 | 74 | 267 | 0.9 | 2.6 | 0.00 | 0.00 | 0.00 | 34 | 1010.1 |
| 20260503172105 | 74 | 267 | 0.9 | 2.6 | 0.00 | 0.00 | 0.00 | 34 | 1010.1 |
| 20260503172002 | 74 | 267 | 0.9 | 2.6 | 0.00 | 0.00 | 0.00 | 34 | 1010.1 |
| 20260503171901 | 74 | 267 | 0.9 | 2.6 | 0.00 | 0.00 | 0.00 | 34 | 1010.2 |
| 20260503171801 | 74 | 267 | 0.9 | 2.6 | 0.00 | 0.00 | 0.00 | 34 | 1010.1 |
| 20260503171701 | 74 | 267 | 0.9 | 2.6 | 0.00 | 0.00 | 0.00 | 34 | 1010.2 |
| 20260503171606 | 74 | 267 | 0.9 | 2.6 | 0.00 | 0.00 | 0.00 | 33 | 1010.2 |
| 20260503171501 | 74 | 267 | 0.9 | 2.6 | 0.00 | 0.00 | 0.00 | 33 | 1010.2 |
| 20260503171301 | 74 | 267 | 0.9 | 2.6 | 0.00 | 0.00 | 0.00 | 33 | 1010.2 |
| 20260503171201 | 74 | 267 | 0.9 | 1.7 | 0.00 | 0.00 | 0.00 | 33 | 1010.2 |
| 20260503171105 | 74 | 267 | 0.9 | 1.7 | 0.00 | 0.00 | 0.00 | 32 | 1010.2 |
| 20260503171001 | 74 | 267 | 0.9 | 1.7 | 0.00 | 0.00 | 0.00 | 33 | 1010.2 |
| 20260503170920 | 74 | 267 | 0.9 | 1.7 | 0.00 | 0.00 | 0.00 | 33 | 1010.2 |
| 20260503170916 | 74 | 267 | 0.9 | 1.7 | 0.00 | 0.00 | 0.00 | 33 | 1010.1 |
| 20260503170912 | 74 | 267 | 0.9 | 1.7 | 0.00 | 0.00 | 0.00 | 33 | 1010.2 |
| 20260503170603 | 74 | 267 | 0.9 | 1.7 | 0.00 | 0.00 | 0.00 | 33 | 1010.2 |
| 20260503170500 | 74 | 267 | 0.9 | 1.7 | 0.00 | 0.00 | 0.00 | 32 | 1010.1 |
| 20260503170401 | 74 | 267 | 0.9 | 1.7 | 0.00 | 0.00 | 0.00 | 33 | 1010.2 |
| 20260503170301 | 74 | 267 | 0.9 | 1.7 | 0.00 | 0.00 | 0.00 | 33 | 1010.1 |
| 20260503170201 | 74 | 267 | 0.9 | 1.7 | 0.00 | 0.00 | 0.00 | 33 | 1010.1 |
| 20260503160200 | 76 | 319 | 1.7 | 4.3 | 0.00 | 0.00 | 0.00 | 29 | 1010.2 |
| 20260503160108 | 76 | 319 | 1.7 | 4.3 | 0.00 | 0.00 | 0.00 | 28 | 1010.2 |